DLH455 KSFO-EDDF

Flight info

Callsign DLH455
Flight time 9h 29m
Altitude 35000
Route SNTNA2 DEDHD DCT KO66G DCT KU78I DCT KU90K DCT KU18O DCT BEVEL DCT 54N100W/N0486F370 5630N09000W DCT GOSEP DCT 59N070W DCT PEPKI/M084F370 DCT RADUN DCT 60N050W/M085F390 5930N04000W 5830N03000W 57N020W DCT PIKIL/N0495F390 DCT SOVED DCT LUTOV DCT BELOX L603 DOLAS DCT NAVPI DCT NOLRU DCT DIXAT
Aircraft B748/H-SDE3FGHIM1M2RWXY/LB1

Departure

Time 2026-04-15 21:20
Airport San Francisco International Airport (KSFO)

Arrival

Time 2026-04-16 06:50
Airport Frankfurt Main Airport (EDDF)
Time Latitude Longitude Altitude Speed Heading
2026-04-15 20:45 37.61889 -122.39253 10 ft 0 kts 206°
2026-04-15 21:11 37.61905 -122.39243 29 ft 3 kts 206°
2026-04-15 21:12 37.61935 -122.39212 29 ft 3 kts 245°
2026-04-15 21:12 37.61942 -122.39167 28 ft 0 kts 301°
2026-04-15 21:14 37.61946 -122.39176 28 ft 2 kts 300°
2026-04-15 21:14 37.61961 -122.39210 29 ft 3 kts 299°
2026-04-15 21:15 37.61975 -122.39228 29 ft 1 kts 321°
2026-04-15 21:15 37.61993 -122.39235 27 ft 3 kts 349°
2026-04-15 21:15 37.62089 -122.39197 25 ft 10 kts 27°
2026-04-15 21:15 37.62201 -122.39123 24 ft 8 kts 31°
2026-04-15 21:16 37.62240 -122.39049 26 ft 6 kts 69°
2026-04-15 21:16 37.62243 -122.38859 22 ft 16 kts 114°
2026-04-15 21:16 37.62123 -122.38576 31 ft 17 kts 117°
2026-04-15 21:16 37.62023 -122.38335 29 ft 13 kts 118°
2026-04-15 21:17 37.61937 -122.38135 28 ft 14 kts 118°
2026-04-15 21:17 37.61857 -122.37926 27 ft 13 kts 107°
2026-04-15 21:17 37.61812 -122.37764 29 ft 8 kts 120°
2026-04-15 21:17 37.61760 -122.37638 32 ft 9 kts 114°
2026-04-15 21:18 37.61702 -122.37467 26 ft 13 kts 114°
2026-04-15 21:18 37.61616 -122.37265 29 ft 13 kts 119°
2026-04-15 21:18 37.61517 -122.37026 29 ft 17 kts 117°
2026-04-15 21:18 37.61363 -122.36764 29 ft 21 kts 124°
2026-04-15 21:19 37.61211 -122.36407 27 ft 24 kts 118°
2026-04-15 21:19 37.61114 -122.36180 27 ft 4 kts 117°
2026-04-15 21:19 37.61111 -122.36126 28 ft 3 kts 71°
2026-04-15 21:19 37.61177 -122.36058 25 ft 12 kts 27°
2026-04-15 21:20 37.61280 -122.36108 25 ft 14 kts 304°
2026-04-15 21:20 37.61855 -122.37474 40 ft 161 kts 297°
2026-04-15 21:20 37.62832 -122.39910 1307 ft 158 kts 296°
2026-04-15 21:20 37.63850 -122.42437 2304 ft 173 kts 301°
2026-04-15 21:21 37.65150 -122.45183 3089 ft 192 kts 301°
2026-04-15 21:21 37.66484 -122.48274 3695 ft 208 kts 300°
2026-04-15 21:21 37.68079 -122.51485 4169 ft 225 kts 321°
2026-04-15 21:21 37.71128 -122.52534 4850 ft 242 kts 356°
2026-04-15 21:22 37.88536 -122.50714 8302 ft 269 kts 25°
2026-04-15 21:22 37.89172 -122.50252 8475 ft 269 kts 28°
2026-04-15 21:22 37.89496 -122.49981 8481 ft 273 kts 33°
2026-04-15 21:23 37.90054 -122.49358 8483 ft 281 kts 46°
2026-04-15 21:23 37.90690 -122.48196 8626 ft 285 kts 60°
2026-04-15 21:23 37.91498 -122.45840 8831 ft 298 kts 68°
2026-04-15 21:23 37.92201 -122.43337 9445 ft 304 kts 68°
2026-04-15 21:24 37.93029 -122.40909 10141 ft 307 kts 60°
2026-04-15 21:24 37.93283 -122.40298 10281 ft 309 kts 59°
2026-04-15 21:24 37.94637 -122.37712 10460 ft 335 kts 48°
2026-04-15 21:24 37.96298 -122.35515 10771 ft 352 kts 38°
2026-04-15 21:25 37.98322 -122.33730 11195 ft 364 kts 25°
2026-04-15 21:25 38.00644 -122.32371 11916 ft 370 kts 19°
2026-04-15 21:25 38.03041 -122.31090 12701 ft 376 kts 20°
2026-04-15 21:25 38.05417 -122.29619 13503 ft 383 kts 24°
2026-04-15 21:26 38.07776 -122.27988 14241 ft 389 kts 25°
2026-04-15 21:26 38.10189 -122.26383 14962 ft 392 kts 23°
2026-04-15 21:26 38.12619 -122.24855 15678 ft 396 kts 22°
2026-04-15 21:26 38.15099 -122.23281 16400 ft 401 kts 23°
2026-04-15 21:27 38.17594 -122.21651 17131 ft 405 kts 24°
2026-04-15 21:27 38.20118 -122.19998 17849 ft 410 kts 24°
2026-04-15 21:27 38.22675 -122.18345 18549 ft 414 kts 23°
2026-04-15 21:27 38.25268 -122.16672 19185 ft 418 kts 24°
2026-04-15 21:28 38.27871 -122.14980 19805 ft 422 kts 24°
2026-04-15 21:28 38.30502 -122.13266 20418 ft 426 kts 24°
2026-04-15 21:28 38.33152 -122.11541 21018 ft 430 kts 25°
2026-04-15 21:28 38.35715 -122.09631 21620 ft 434 kts 28°
2026-04-15 21:29 38.38319 -122.07657 22206 ft 438 kts 27°
2026-04-15 21:29 38.40951 -122.05674 22792 ft 441 kts 27°
2026-04-15 21:29 38.43601 -122.03663 23353 ft 444 kts 28°
2026-04-15 21:29 38.46269 -122.01624 23882 ft 448 kts 28°
2026-04-15 21:30 38.48956 -121.99576 24321 ft 451 kts 28°
2026-04-15 21:30 38.51658 -121.97521 24766 ft 454 kts 27°
2026-04-15 21:30 38.54375 -121.95451 25205 ft 456 kts 27°
2026-04-15 21:30 38.57109 -121.93363 25632 ft 459 kts 27°
2026-04-15 21:31 38.62602 -121.89162 26487 ft 465 kts 27°
2026-04-15 21:31 38.65386 -121.87033 26914 ft 467 kts 27°
2026-04-15 21:32 38.71000 -121.82729 27748 ft 473 kts 27°
2026-04-15 21:32 38.73839 -121.80549 28160 ft 476 kts 27°
2026-04-15 21:32 38.76698 -121.78354 28567 ft 479 kts 27°
2026-04-15 21:32 38.79566 -121.76148 28982 ft 482 kts 27°
2026-04-15 21:33 38.82419 -121.73951 29401 ft 485 kts 27°
2026-04-15 21:33 38.85326 -121.71712 29793 ft 488 kts 27°
2026-04-15 21:33 38.88245 -121.69461 30211 ft 491 kts 27°
2026-04-15 21:33 38.91187 -121.67189 30559 ft 493 kts 27°
2026-04-15 21:34 38.94142 -121.64906 30891 ft 496 kts 27°
2026-04-15 21:34 38.97074 -121.62638 31210 ft 499 kts 27°
2026-04-15 21:34 39.00055 -121.60330 31528 ft 501 kts 27°
2026-04-15 21:34 39.03048 -121.58010 31846 ft 504 kts 27°
2026-04-15 21:35 39.06061 -121.55672 32159 ft 506 kts 27°
2026-04-15 21:35 39.09080 -121.53328 32460 ft 509 kts 27°
2026-04-15 21:35 39.12117 -121.50967 32765 ft 511 kts 27°
2026-04-15 21:35 39.15173 -121.48590 33045 ft 513 kts 27°
2026-04-15 21:36 39.18236 -121.46202 33481 ft 512 kts 27°
2026-04-15 21:36 39.21277 -121.43830 33927 ft 511 kts 27°
2026-04-15 21:36 39.24316 -121.41459 34313 ft 510 kts 27°
2026-04-15 21:36 39.26328 -121.39887 34535 ft 510 kts 27°
2026-04-15 21:37 39.29360 -121.37516 34878 ft 509 kts 27°
2026-04-15 21:37 39.33392 -121.34361 35098 ft 513 kts 27°
2026-04-15 21:37 39.36439 -121.31972 35102 ft 511 kts 27°
2026-04-15 21:38 39.41519 -121.27983 35106 ft 510 kts 27°
2026-04-15 21:38 39.47551 -121.23242 35096 ft 509 kts 27°
2026-04-15 21:39 39.53623 -121.18457 35122 ft 510 kts 27°
2026-04-15 21:39 39.59720 -121.13644 35114 ft 512 kts 27°
2026-04-15 21:40 39.65782 -121.08847 35115 ft 513 kts 27°
2026-04-15 21:40 39.71886 -121.04007 35097 ft 514 kts 27°
2026-04-15 21:41 39.77987 -120.99159 35100 ft 514 kts 27°
2026-04-15 21:41 39.84073 -120.94314 35090 ft 515 kts 27°
2026-04-15 21:42 39.90187 -120.89434 35080 ft 515 kts 27°
2026-04-15 21:42 39.96307 -120.84541 35070 ft 516 kts 27°
2026-04-15 21:43 40.02433 -120.79632 35053 ft 517 kts 27°
2026-04-15 21:43 40.08528 -120.74738 35043 ft 517 kts 27°
2026-04-15 21:44 40.14670 -120.69796 35037 ft 517 kts 27°
2026-04-15 21:44 40.20805 -120.64847 35039 ft 518 kts 27°
2026-04-15 21:45 40.26956 -120.59877 35051 ft 519 kts 27°
2026-04-15 21:45 40.33115 -120.54888 35045 ft 521 kts 27°
2026-04-15 21:46 40.39247 -120.49910 35046 ft 522 kts 27°
2026-04-15 21:46 40.45422 -120.44886 35042 ft 523 kts 27°
2026-04-15 21:47 40.51606 -120.39845 35023 ft 523 kts 27°
2026-04-15 21:47 40.57798 -120.34785 35007 ft 524 kts 27°
2026-04-15 21:48 40.63972 -120.29730 34988 ft 525 kts 27°
2026-04-15 21:48 40.70179 -120.24636 34983 ft 526 kts 27°
2026-04-15 21:49 40.76392 -120.19525 34980 ft 526 kts 27°
2026-04-15 21:49 40.82612 -120.14398 34981 ft 527 kts 27°
2026-04-15 21:50 40.88796 -120.09289 34978 ft 527 kts 27°
2026-04-15 21:50 40.95026 -120.04130 34973 ft 528 kts 27°
2026-04-15 21:51 41.01229 -119.98835 34982 ft 532 kts 31°
2026-04-15 21:51 41.07244 -119.93025 34963 ft 534 kts 31°
2026-04-15 21:52 41.13222 -119.87267 34956 ft 534 kts 31°
2026-04-15 21:52 41.19233 -119.81450 34941 ft 535 kts 31°
2026-04-15 21:53 41.25251 -119.75618 34936 ft 535 kts 31°
2026-04-15 21:53 41.31273 -119.69768 34934 ft 536 kts 31°
2026-04-15 21:54 41.37304 -119.63894 34927 ft 537 kts 31°
2026-04-15 21:54 41.43342 -119.58002 34922 ft 538 kts 31°
2026-04-15 21:55 41.49378 -119.52094 34914 ft 538 kts 31°
2026-04-15 21:55 41.55415 -119.46175 34904 ft 539 kts 32°
2026-04-15 21:56 41.61427 -119.40264 34901 ft 539 kts 32°
2026-04-15 21:56 41.67478 -119.34302 34894 ft 541 kts 32°
2026-04-15 21:57 41.73542 -119.28312 34895 ft 542 kts 32°
2026-04-15 21:57 41.79592 -119.22321 34887 ft 543 kts 32°
2026-04-15 21:58 41.85665 -119.16294 34873 ft 543 kts 32°
2026-04-15 21:58 41.91752 -119.10239 34874 ft 545 kts 32°
2026-04-15 21:59 41.97853 -119.04152 34873 ft 545 kts 32°
2026-04-15 21:59 42.03913 -118.98095 34870 ft 546 kts 32°
2026-04-15 22:00 42.10018 -118.91976 34862 ft 548 kts 32°
2026-04-15 22:00 42.16143 -118.85822 34857 ft 549 kts 32°
2026-04-15 22:01 42.22267 -118.79654 34854 ft 550 kts 32°
2026-04-15 22:01 42.28419 -118.73443 34849 ft 552 kts 32°
2026-04-15 22:02 42.34533 -118.67254 34847 ft 553 kts 32°
2026-04-15 22:02 42.40696 -118.60999 34833 ft 545 kts 32°
2026-04-15 22:03 42.46787 -118.54807 34833 ft 552 kts 32°
2026-04-15 22:03 42.52931 -118.48537 34825 ft 554 kts 32°
2026-04-15 22:04 42.59087 -118.42243 34816 ft 553 kts 32°
2026-04-15 22:04 42.65244 -118.35933 34809 ft 554 kts 32°
2026-04-15 22:05 42.71393 -118.29613 34812 ft 554 kts 32°
2026-04-15 22:05 42.77515 -118.23307 34808 ft 555 kts 32°
2026-04-15 22:06 42.83670 -118.16949 34803 ft 555 kts 32°
2026-04-15 22:06 42.89829 -118.10572 34797 ft 556 kts 32°
2026-04-15 22:07 42.95986 -118.04179 34796 ft 556 kts 32°
2026-04-15 22:07 43.02200 -117.97910 34790 ft 554 kts 29°
2026-04-15 22:08 43.08482 -117.91849 34789 ft 556 kts 30°
2026-04-15 22:08 43.14809 -117.85764 34789 ft 555 kts 29°
2026-04-15 22:09 43.21131 -117.79656 34784 ft 556 kts 30°
2026-04-15 22:09 43.27455 -117.73530 34784 ft 556 kts 30°
2026-04-15 22:10 43.33764 -117.67408 34798 ft 555 kts 30°
2026-04-15 22:10 43.40076 -117.61262 34789 ft 555 kts 30°
2026-04-15 22:11 43.46325 -117.55166 34793 ft 554 kts 30°
2026-04-15 22:11 43.52622 -117.49003 34791 ft 554 kts 30°
2026-04-15 22:12 43.58911 -117.42834 34796 ft 554 kts 30°
2026-04-15 22:12 43.65168 -117.36680 34781 ft 555 kts 30°
2026-04-15 22:13 43.71456 -117.30479 34792 ft 555 kts 30°
2026-04-15 22:13 43.77754 -117.24252 34797 ft 556 kts 30°
2026-04-15 22:14 43.84044 -117.18017 34806 ft 556 kts 30°
2026-04-15 22:14 43.90344 -117.11755 34798 ft 557 kts 30°
2026-04-15 22:15 43.96594 -117.05525 34802 ft 557 kts 30°
2026-04-15 22:15 44.02882 -116.99243 34796 ft 556 kts 30°
2026-04-15 22:16 44.09151 -116.92961 34804 ft 556 kts 30°
2026-04-15 22:16 44.15434 -116.86649 34807 ft 556 kts 31°
2026-04-15 22:17 44.21704 -116.80334 34815 ft 556 kts 31°
2026-04-15 22:17 44.27976 -116.74000 34813 ft 556 kts 31°
2026-04-15 22:18 44.34201 -116.67694 34822 ft 556 kts 31°
2026-04-15 22:18 44.40475 -116.61323 34818 ft 556 kts 31°
2026-04-15 22:19 44.46729 -116.54955 34819 ft 555 kts 31°
2026-04-15 22:19 44.52981 -116.48573 34815 ft 555 kts 31°
2026-04-15 22:20 44.59178 -116.42228 34823 ft 556 kts 31°
2026-04-15 22:20 44.65420 -116.35820 34804 ft 555 kts 31°
2026-04-15 22:21 44.71649 -116.29408 34792 ft 555 kts 31°
2026-04-15 22:21 44.77884 -116.22974 34796 ft 555 kts 31°
2026-04-15 22:22 44.84099 -116.16541 34782 ft 554 kts 31°
2026-04-15 22:22 44.90310 -116.10095 34777 ft 553 kts 31°
2026-04-15 22:23 44.96499 -116.03653 34788 ft 553 kts 31°
2026-04-15 22:23 45.02515 -115.96943 34782 ft 556 kts 37°
2026-04-15 22:24 45.08309 -115.89702 34783 ft 556 kts 37°
2026-04-15 22:24 45.14130 -115.82519 34768 ft 554 kts 37°
2026-04-15 22:25 45.19915 -115.75301 34751 ft 554 kts 37°
2026-04-15 22:25 45.25696 -115.68097 34731 ft 552 kts 37°
2026-04-15 22:26 45.30482 -115.62108 34724 ft 551 kts 37°
2026-04-15 22:26 45.37163 -115.53725 34700 ft 550 kts 37°
2026-04-15 22:27 45.41969 -115.47680 34696 ft 549 kts 37°
2026-04-15 22:27 45.47669 -115.40487 34683 ft 549 kts 37°
2026-04-15 22:28 45.53385 -115.33259 34685 ft 548 kts 38°
2026-04-15 22:28 45.59107 -115.25999 34679 ft 548 kts 38°
2026-04-15 22:29 45.64754 -115.18815 34684 ft 547 kts 38°
2026-04-15 22:29 45.70448 -115.11553 34682 ft 548 kts 38°
2026-04-15 22:30 45.76117 -115.04298 34697 ft 546 kts 38°
2026-04-15 22:30 45.81787 -114.97026 34699 ft 546 kts 38°
2026-04-15 22:31 45.87434 -114.89759 34706 ft 545 kts 38°
2026-04-15 22:31 45.93046 -114.82519 34699 ft 545 kts 38°
2026-04-15 22:32 45.98677 -114.75230 34704 ft 544 kts 38°
2026-04-15 22:32 46.04300 -114.67934 34708 ft 544 kts 38°
2026-04-15 22:33 46.09912 -114.60630 34724 ft 543 kts 38°
2026-04-15 22:33 46.12715 -114.56978 34928 ft 545 kts 39°
2026-04-15 22:33 46.15560 -114.53266 34769 ft 557 kts 39°
2026-04-15 22:34 46.21402 -114.45615 34736 ft 575 kts 39°
2026-04-15 22:34 46.27321 -114.37840 34726 ft 573 kts 39°
2026-04-15 22:35 46.33230 -114.30061 34718 ft 574 kts 39°
2026-04-15 22:35 46.39090 -114.22318 34719 ft 574 kts 40°
2026-04-15 22:36 46.44984 -114.14508 34717 ft 573 kts 40°
2026-04-15 22:36 46.50875 -114.06679 34709 ft 573 kts 40°
2026-04-15 22:37 46.56743 -113.98856 34702 ft 572 kts 40°
2026-04-15 22:37 46.62566 -113.91069 34694 ft 572 kts 40°
2026-04-15 22:38 46.68431 -113.83203 35098 ft 572 kts 40°
2026-04-15 22:38 46.71353 -113.79272 35537 ft 570 kts 40°
2026-04-15 22:38 46.74264 -113.75353 35968 ft 568 kts 40°
2026-04-15 22:38 46.77155 -113.71453 36399 ft 565 kts 40°
2026-04-15 22:39 46.80038 -113.67559 36673 ft 563 kts 40°
2026-04-15 22:39 46.85750 -113.59827 36674 ft 557 kts 40°
2026-04-15 22:40 46.91434 -113.52111 36673 ft 557 kts 40°
2026-04-15 22:40 46.97112 -113.44376 36686 ft 558 kts 40°
2026-04-15 22:41 47.05623 -113.32739 36703 ft 558 kts 40°
2026-04-15 22:41 47.11291 -113.24960 36713 ft 557 kts 41°
2026-04-15 22:42 47.16907 -113.17229 36712 ft 557 kts 41°
2026-04-15 22:42 47.22559 -113.09423 36722 ft 558 kts 41°
2026-04-15 22:43 47.28213 -113.01593 36723 ft 557 kts 41°
2026-04-15 22:43 47.33853 -112.93757 36720 ft 556 kts 41°
2026-04-15 22:44 47.39467 -112.85932 36704 ft 555 kts 41°
2026-04-15 22:44 47.45082 -112.78084 36692 ft 555 kts 41°
2026-04-15 22:45 47.50689 -112.70220 36676 ft 555 kts 41°
2026-04-15 22:45 47.56292 -112.62340 36658 ft 555 kts 41°
2026-04-15 22:46 47.61884 -112.54449 36639 ft 555 kts 41°
2026-04-15 22:46 47.67476 -112.46534 36630 ft 556 kts 41°
2026-04-15 22:47 47.73036 -112.38640 36614 ft 556 kts 41°
2026-04-15 22:47 47.78625 -112.30680 36605 ft 557 kts 41°
2026-04-15 22:48 47.84211 -112.22699 36604 ft 557 kts 41°
2026-04-15 22:48 47.89799 -112.14690 36599 ft 558 kts 42°
2026-04-15 22:49 47.95389 -112.06653 36602 ft 558 kts 42°
2026-04-15 22:49 48.01018 -111.98690 36611 ft 555 kts 38°
2026-04-15 22:50 48.06902 -111.91162 36598 ft 556 kts 38°
2026-04-15 22:50 48.12728 -111.83658 36598 ft 555 kts 38°
2026-04-15 22:51 48.18575 -111.76119 36598 ft 554 kts 38°
2026-04-15 22:51 48.24415 -111.68557 36604 ft 554 kts 38°
2026-04-15 22:52 48.30242 -111.60992 36611 ft 553 kts 38°
2026-04-15 22:52 48.36063 -111.53409 36614 ft 553 kts 38°
2026-04-15 22:53 48.41833 -111.45872 36611 ft 553 kts 38°
2026-04-15 22:53 48.47632 -111.38270 36607 ft 552 kts 38°
2026-04-15 22:54 48.53426 -111.30653 36613 ft 552 kts 38°
2026-04-15 22:54 48.59226 -111.23003 36620 ft 552 kts 38°
2026-04-15 22:55 48.65002 -111.15360 36619 ft 552 kts 38°
2026-04-15 22:55 48.70752 -111.07727 36618 ft 552 kts 38°
2026-04-15 22:56 48.76524 -111.00041 36624 ft 552 kts 38°
2026-04-15 22:56 48.82296 -110.92331 36625 ft 553 kts 39°
2026-04-15 22:57 48.88067 -110.84597 36627 ft 552 kts 39°
2026-04-15 22:57 48.93796 -110.76895 36629 ft 552 kts 39°
2026-04-15 22:58 48.99552 -110.69132 36630 ft 552 kts 39°
2026-04-15 22:58 49.05282 -110.61379 36627 ft 551 kts 39°
2026-04-15 22:59 49.11015 -110.53597 36626 ft 552 kts 39°
2026-04-15 22:59 49.16748 -110.45790 36625 ft 551 kts 39°
2026-04-15 23:00 49.22466 -110.37978 36627 ft 550 kts 39°
2026-04-15 23:00 49.28173 -110.30156 36632 ft 550 kts 39°
2026-04-15 23:01 49.33860 -110.22336 36633 ft 549 kts 39°
2026-04-15 23:01 49.39505 -110.14550 36630 ft 548 kts 39°
2026-04-15 23:02 49.45173 -110.06704 36634 ft 547 kts 39°
2026-04-15 23:02 49.50729 -109.98672 36655 ft 549 kts 48°
2026-04-15 23:03 49.55601 -109.89662 36642 ft 550 kts 49°
2026-04-15 23:03 49.60490 -109.80585 36632 ft 550 kts 48°
2026-04-15 23:04 49.65383 -109.71502 36634 ft 550 kts 49°
2026-04-15 23:04 49.70256 -109.62384 36638 ft 550 kts 49°
2026-04-15 23:05 49.75134 -109.53263 36632 ft 550 kts 49°
2026-04-15 23:05 49.80002 -109.44098 36621 ft 552 kts 49°
2026-04-15 23:06 49.84855 -109.34952 36625 ft 551 kts 49°
2026-04-15 23:06 49.89713 -109.25750 36628 ft 551 kts 49°
2026-04-15 23:07 49.94572 -109.16523 36615 ft 551 kts 49°
2026-04-15 23:07 49.99425 -109.07267 36615 ft 551 kts 49°
2026-04-15 23:08 50.04263 -108.98013 36619 ft 551 kts 49°
2026-04-15 23:08 50.09064 -108.88794 36623 ft 551 kts 49°
2026-04-15 23:09 50.13887 -108.79501 36624 ft 551 kts 49°
2026-04-15 23:09 50.18705 -108.70183 36630 ft 551 kts 49°
2026-04-15 23:10 50.23507 -108.60866 36634 ft 550 kts 49°
2026-04-15 23:10 50.28272 -108.51585 36636 ft 550 kts 49°
2026-04-15 23:11 50.33051 -108.42246 36637 ft 549 kts 49°
2026-04-15 23:11 50.37025 -108.34452 36646 ft 549 kts 49°
2026-04-15 23:12 50.41780 -108.25098 36656 ft 548 kts 49°
2026-04-15 23:12 50.46530 -108.15719 36659 ft 548 kts 49°
2026-04-15 23:13 50.51269 -108.06329 36671 ft 548 kts 49°
2026-04-15 23:13 50.55975 -107.96971 36677 ft 549 kts 50°
2026-04-15 23:14 50.60704 -107.87532 36693 ft 548 kts 50°
2026-04-15 23:14 50.65431 -107.78064 36711 ft 549 kts 50°
2026-04-15 23:15 50.70114 -107.68649 36719 ft 549 kts 50°
2026-04-15 23:15 50.74831 -107.59131 36730 ft 550 kts 50°
2026-04-15 23:16 50.79537 -107.49601 36734 ft 550 kts 50°
2026-04-15 23:16 50.84244 -107.40034 36742 ft 551 kts 50°
2026-04-15 23:17 50.88938 -107.30457 36753 ft 550 kts 50°
2026-04-15 23:17 50.93623 -107.20864 36761 ft 549 kts 50°
2026-04-15 23:18 50.98294 -107.11265 36764 ft 549 kts 50°
2026-04-15 23:18 51.02912 -107.01739 36767 ft 548 kts 50°
2026-04-15 23:19 51.07562 -106.92114 36781 ft 547 kts 50°
2026-04-15 23:19 51.12187 -106.82502 36790 ft 547 kts 50°
2026-04-15 23:20 51.16805 -106.72869 36802 ft 546 kts 50°
2026-04-15 23:20 51.21384 -106.63284 36813 ft 546 kts 50°
2026-04-15 23:21 51.25986 -106.53614 36830 ft 546 kts 50°
2026-04-15 23:21 51.30575 -106.43936 36841 ft 546 kts 51°
2026-04-15 23:22 51.35125 -106.34303 36848 ft 545 kts 51°
2026-04-15 23:22 51.39688 -106.24606 36861 ft 544 kts 51°
2026-04-15 23:23 51.44235 -106.14907 36870 ft 543 kts 51°
2026-04-15 23:23 51.48762 -106.05216 36877 ft 543 kts 51°
2026-04-15 23:24 51.53254 -105.95562 36888 ft 542 kts 51°
2026-04-15 23:24 51.57761 -105.85841 36893 ft 542 kts 51°
2026-04-15 23:25 51.62259 -105.76101 36902 ft 541 kts 51°
2026-04-15 23:25 51.66715 -105.66417 36912 ft 541 kts 51°
2026-04-15 23:26 51.71184 -105.56668 36911 ft 540 kts 51°
2026-04-15 23:26 51.75651 -105.46885 36920 ft 540 kts 51°
2026-04-15 23:27 51.80104 -105.37098 36921 ft 540 kts 51°
2026-04-15 23:27 51.84515 -105.27364 36925 ft 540 kts 51°
2026-04-15 23:28 51.88947 -105.17549 36929 ft 540 kts 52°
2026-04-15 23:28 51.93374 -105.07705 36930 ft 540 kts 52°
2026-04-15 23:29 51.97787 -104.97854 36937 ft 540 kts 52°
2026-04-15 23:29 52.02197 -104.87974 36935 ft 540 kts 52°
2026-04-15 23:30 52.06572 -104.78136 36929 ft 540 kts 52°
2026-04-15 23:30 52.10968 -104.68211 36929 ft 540 kts 52°
2026-04-15 23:31 52.15352 -104.58274 36929 ft 540 kts 52°
2026-04-15 23:31 52.19699 -104.48382 36943 ft 540 kts 52°
2026-04-15 23:32 52.24066 -104.38409 36941 ft 540 kts 52°
2026-04-15 23:32 52.28425 -104.28411 36943 ft 540 kts 52°
2026-04-15 23:33 52.32773 -104.18404 36945 ft 540 kts 53°
2026-04-15 23:33 52.37113 -104.08373 36957 ft 540 kts 53°
2026-04-15 23:34 52.41418 -103.98385 36958 ft 540 kts 53°
2026-04-15 23:36 52.56525 -103.63023 36961 ft 540 kts 53°
2026-04-15 23:36 52.60823 -103.52871 36959 ft 540 kts 53°
2026-04-15 23:37 52.65113 -103.42699 36961 ft 540 kts 53°
2026-04-15 23:37 52.69363 -103.32583 36963 ft 540 kts 53°
2026-04-15 23:38 52.73639 -103.22360 36950 ft 541 kts 53°
2026-04-15 23:38 52.77906 -103.12120 36952 ft 541 kts 53°
2026-04-15 23:39 52.82160 -103.01871 36951 ft 541 kts 53°
2026-04-15 23:39 52.86417 -102.91572 36954 ft 541 kts 54°
2026-04-15 23:40 52.90642 -102.81311 36955 ft 541 kts 54°
2026-04-15 23:40 52.94878 -102.70978 36957 ft 542 kts 54°
2026-04-15 23:41 52.99106 -102.60624 36958 ft 542 kts 54°
2026-04-15 23:41 53.03304 -102.50301 36968 ft 542 kts 54°
2026-04-15 23:42 53.07519 -102.39895 36971 ft 542 kts 54°
2026-04-15 23:42 53.11733 -102.29449 36972 ft 543 kts 54°
2026-04-15 23:43 53.15905 -102.19062 36976 ft 543 kts 54°
2026-04-15 23:43 53.20092 -102.08594 36977 ft 543 kts 54°
2026-04-15 23:44 53.24273 -101.98099 36979 ft 543 kts 54°
2026-04-15 23:44 53.28442 -101.87591 36980 ft 542 kts 54°
2026-04-15 23:45 53.32599 -101.77070 36983 ft 543 kts 54°
2026-04-15 23:45 53.36758 -101.66498 36977 ft 543 kts 54°
2026-04-15 23:46 53.40906 -101.55911 36979 ft 543 kts 54°
2026-04-15 23:46 53.45022 -101.45360 36978 ft 543 kts 55°
2026-04-15 23:47 53.49156 -101.34720 36974 ft 543 kts 55°
2026-04-15 23:47 53.53280 -101.24060 36975 ft 543 kts 55°
2026-04-15 23:48 53.57368 -101.13446 36978 ft 544 kts 55°
2026-04-15 23:48 53.61468 -101.02759 36981 ft 544 kts 55°
2026-04-15 23:49 53.65561 -100.92042 36987 ft 544 kts 55°
2026-04-15 23:49 53.69647 -100.81300 36988 ft 544 kts 55°
2026-04-15 23:50 53.73720 -100.70542 36986 ft 544 kts 56°
2026-04-15 23:50 53.77786 -100.59761 36978 ft 543 kts 56°
2026-04-15 23:51 53.83839 -100.43620 36967 ft 544 kts 56°
2026-04-15 23:51 53.87887 -100.32766 36966 ft 544 kts 56°
2026-04-15 23:52 53.91923 -100.21900 36959 ft 544 kts 56°
2026-04-15 23:52 53.95945 -100.11021 36959 ft 544 kts 56°
2026-04-15 23:53 53.99945 -100.00123 36954 ft 544 kts 59°
2026-04-15 23:53 54.03484 -99.88719 36957 ft 545 kts 61°
2026-04-15 23:54 54.06996 -99.77258 36950 ft 546 kts 61°
2026-04-15 23:54 54.10510 -99.65773 36952 ft 546 kts 61°
2026-04-15 23:55 54.13981 -99.54336 36951 ft 546 kts 61°
2026-04-15 23:55 54.17477 -99.42797 36945 ft 547 kts 61°
2026-04-15 23:56 54.20950 -99.31249 36929 ft 546 kts 61°
2026-04-15 23:56 54.24422 -99.19668 36933 ft 546 kts 62°
2026-04-15 23:57 54.27872 -99.08091 36932 ft 546 kts 62°
2026-04-15 23:57 54.31311 -98.96503 36936 ft 546 kts 62°
2026-04-15 23:58 54.34713 -98.84981 36929 ft 546 kts 62°
2026-04-15 23:58 54.38129 -98.73354 36928 ft 546 kts 62°
2026-04-15 23:59 54.41534 -98.61704 36931 ft 546 kts 62°
2026-04-15 23:59 54.44927 -98.50042 36926 ft 545 kts 62°
2026-04-16 00:00 54.47739 -98.40332 36922 ft 545 kts 62°
2026-04-16 00:00 54.51112 -98.28629 36926 ft 545 kts 62°
2026-04-16 00:01 54.54472 -98.16914 36922 ft 545 kts 62°
2026-04-16 00:01 54.57821 -98.05179 36918 ft 545 kts 63°
2026-04-16 00:02 54.61159 -97.93426 36920 ft 546 kts 63°
2026-04-16 00:02 54.64470 -97.81704 36913 ft 546 kts 63°
2026-04-16 00:03 54.67788 -97.69902 36916 ft 546 kts 63°
2026-04-16 00:03 54.71097 -97.58067 36918 ft 545 kts 63°
2026-04-16 00:04 54.74367 -97.46314 36918 ft 545 kts 63°
2026-04-16 00:04 54.77653 -97.34444 36925 ft 546 kts 63°
2026-04-16 00:05 54.80924 -97.22568 36925 ft 546 kts 63°
2026-04-16 00:05 54.84182 -97.10674 36930 ft 546 kts 63°
2026-04-16 00:06 54.87361 -96.99013 36932 ft 545 kts 64°
2026-04-16 00:06 54.90594 -96.87088 36936 ft 546 kts 64°
2026-04-16 00:07 54.93816 -96.75143 36938 ft 545 kts 64°
2026-04-16 00:07 54.97026 -96.63182 36945 ft 545 kts 64°
2026-04-16 00:08 55.00216 -96.51231 36950 ft 544 kts 64°
2026-04-16 00:08 55.03398 -96.39247 36961 ft 544 kts 64°
2026-04-16 00:09 55.06550 -96.27314 36964 ft 544 kts 64°
2026-04-16 00:09 55.09708 -96.15293 36968 ft 544 kts 64°
2026-04-16 00:10 55.12860 -96.03233 36974 ft 545 kts 64°
2026-04-16 00:10 55.15978 -95.91239 36978 ft 545 kts 65°
2026-04-16 00:11 55.19107 -95.79136 36980 ft 545 kts 65°
2026-04-16 00:11 55.22226 -95.67006 36987 ft 545 kts 65°
2026-04-16 00:12 55.25311 -95.54943 36987 ft 546 kts 65°
2026-04-16 00:12 55.28406 -95.42775 37001 ft 546 kts 65°
2026-04-16 00:13 55.31489 -95.30589 37004 ft 546 kts 65°
2026-04-16 00:13 55.34561 -95.18381 37004 ft 546 kts 65°
2026-04-16 00:14 55.37620 -95.06157 37008 ft 546 kts 65°
2026-04-16 00:14 55.40668 -94.93908 37008 ft 546 kts 65°
2026-04-16 00:15 55.43702 -94.81645 37017 ft 546 kts 66°
2026-04-16 00:15 55.46725 -94.69360 37021 ft 546 kts 66°
2026-04-16 00:16 55.49736 -94.57051 37023 ft 547 kts 66°
2026-04-16 00:16 55.52722 -94.44781 37027 ft 547 kts 66°
2026-04-16 00:17 55.55714 -94.32417 37028 ft 547 kts 66°
2026-04-16 00:17 55.58690 -94.20043 37030 ft 547 kts 66°
2026-04-16 00:18 55.61638 -94.07720 37037 ft 547 kts 66°
2026-04-16 00:18 55.64597 -93.95276 37034 ft 547 kts 66°
2026-04-16 00:19 55.67540 -93.82832 37034 ft 548 kts 66°
2026-04-16 00:19 55.70471 -93.70364 37035 ft 548 kts 67°
2026-04-16 00:20 55.73393 -93.57867 37038 ft 548 kts 67°
2026-04-16 00:20 55.76298 -93.45363 37044 ft 548 kts 67°
2026-04-16 00:21 55.79176 -93.32906 37044 ft 548 kts 67°
2026-04-16 00:21 55.82058 -93.20357 37043 ft 548 kts 67°
2026-04-16 00:22 55.84930 -93.07777 37038 ft 548 kts 67°
2026-04-16 00:22 55.87785 -92.95198 37044 ft 548 kts 67°
2026-04-16 00:23 55.90633 -92.82573 37045 ft 548 kts 68°
2026-04-16 00:23 55.93467 -92.69934 37044 ft 548 kts 68°
2026-04-16 00:24 55.96271 -92.57355 37053 ft 548 kts 68°
2026-04-16 00:24 55.99082 -92.44664 37052 ft 549 kts 68°
2026-04-16 00:25 56.01883 -92.31943 37053 ft 549 kts 68°
2026-04-16 00:25 56.04673 -92.19195 37061 ft 550 kts 68°
2026-04-16 00:26 56.07450 -92.06427 37058 ft 550 kts 68°
2026-04-16 00:26 56.10199 -91.93712 37051 ft 550 kts 68°
2026-04-16 00:27 56.12947 -91.80918 37059 ft 550 kts 68°
2026-04-16 00:27 56.15690 -91.68074 37066 ft 550 kts 68°
2026-04-16 00:28 56.18414 -91.55231 37073 ft 550 kts 68°
2026-04-16 00:28 56.21109 -91.42449 37077 ft 551 kts 69°
2026-04-16 00:29 56.23808 -91.29563 37090 ft 551 kts 69°
2026-04-16 00:29 56.26493 -91.16663 37092 ft 550 kts 69°
2026-04-16 00:30 56.29165 -91.03746 37099 ft 550 kts 69°
2026-04-16 00:30 56.31824 -90.90802 37105 ft 551 kts 69°
2026-04-16 00:31 56.34473 -90.77831 37105 ft 551 kts 69°
2026-04-16 00:31 56.37105 -90.64850 37112 ft 551 kts 69°
2026-04-16 00:32 56.39709 -90.51929 37116 ft 551 kts 69°
2026-04-16 00:32 56.42317 -90.38900 37120 ft 551 kts 69°
2026-04-16 00:33 56.44912 -90.25851 37130 ft 552 kts 69°
2026-04-16 00:33 56.47496 -90.12773 37135 ft 552 kts 69°
2026-04-16 00:34 56.50068 -89.99668 37141 ft 552 kts 70°
2026-04-16 00:34 56.52613 -89.86530 37149 ft 552 kts 70°
2026-04-16 00:35 56.55124 -89.73477 37147 ft 552 kts 70°
2026-04-16 00:35 56.57651 -89.60271 37154 ft 552 kts 70°
2026-04-16 00:36 56.60137 -89.47162 37161 ft 552 kts 70°
2026-04-16 00:36 56.62631 -89.33945 37162 ft 553 kts 70°
2026-04-16 00:37 56.65107 -89.20712 37166 ft 553 kts 70°
2026-04-16 00:37 56.67569 -89.07477 37167 ft 553 kts 70°
2026-04-16 00:38 56.70019 -88.94206 37175 ft 553 kts 70°
2026-04-16 00:38 56.72457 -88.80906 37171 ft 554 kts 70°
2026-04-16 00:39 56.74868 -88.67659 37181 ft 554 kts 70°
2026-04-16 00:39 56.77279 -88.54318 37182 ft 554 kts 70°
2026-04-16 00:40 56.79683 -88.40924 37180 ft 555 kts 70°
2026-04-16 00:40 56.82066 -88.27539 37183 ft 555 kts 71°
2026-04-16 00:41 56.84441 -88.14113 37187 ft 555 kts 71°
2026-04-16 00:41 56.86787 -88.00747 37189 ft 555 kts 71°
2026-04-16 00:42 56.89129 -87.87304 37189 ft 555 kts 71°
2026-04-16 00:42 56.91461 -87.73819 37189 ft 555 kts 71°
2026-04-16 00:43 56.93773 -87.60351 37191 ft 555 kts 71°
2026-04-16 00:43 56.96073 -87.46855 37193 ft 555 kts 71°
2026-04-16 00:44 56.98358 -87.33342 37190 ft 555 kts 71°
2026-04-16 00:44 57.00630 -87.19801 37189 ft 555 kts 71°
2026-04-16 00:45 57.02873 -87.06332 37192 ft 555 kts 71°
2026-04-16 00:45 57.05114 -86.92769 37196 ft 555 kts 71°
2026-04-16 00:46 57.07342 -86.79181 37194 ft 555 kts 71°
2026-04-16 00:46 57.09558 -86.65560 37198 ft 556 kts 71°
2026-04-16 00:47 57.11759 -86.51926 37200 ft 556 kts 71°
2026-04-16 00:47 57.13942 -86.38292 37199 ft 554 kts 71°
2026-04-16 00:48 57.15747 -86.26943 37199 ft 556 kts 72°
2026-04-16 00:48 57.17908 -86.13242 37201 ft 556 kts 72°
2026-04-16 00:50 57.26394 -85.58364 37201 ft 556 kts 72°
2026-04-16 00:51 57.28485 -85.44559 37198 ft 557 kts 72°
2026-04-16 00:51 57.30545 -85.30842 37203 ft 557 kts 72°
2026-04-16 00:52 57.32607 -85.16999 37200 ft 557 kts 72°
2026-04-16 00:52 57.34652 -85.03153 37199 ft 558 kts 72°
2026-04-16 00:53 57.36682 -84.89288 37202 ft 558 kts 72°
2026-04-16 00:53 57.38698 -84.75395 37202 ft 558 kts 72°
2026-04-16 00:54 57.40701 -84.61476 37200 ft 559 kts 72°
2026-04-16 00:54 57.42678 -84.47617 37203 ft 559 kts 72°
2026-04-16 00:55 57.44652 -84.33657 37193 ft 559 kts 73°
2026-04-16 00:55 57.46612 -84.19668 37204 ft 559 kts 73°
2026-04-16 00:56 57.48559 -84.05646 37199 ft 559 kts 73°
2026-04-16 00:56 57.50488 -83.91628 37198 ft 559 kts 73°
2026-04-16 00:57 57.53342 -83.70649 37195 ft 560 kts 73°
2026-04-16 00:58 57.55236 -83.56567 37208 ft 560 kts 73°
2026-04-16 00:58 57.57020 -83.43180 37199 ft 559 kts 73°
2026-04-16 00:59 57.58869 -83.29178 37194 ft 560 kts 73°
2026-04-16 00:59 57.60715 -83.15070 37200 ft 560 kts 73°
2026-04-16 01:00 57.62548 -83.00918 37196 ft 560 kts 73°
2026-04-16 01:00 57.64366 -82.86754 37190 ft 560 kts 74°
2026-04-16 01:01 57.66153 -82.72685 37190 ft 560 kts 74°
2026-04-16 01:01 57.67949 -82.58416 37190 ft 560 kts 74°
2026-04-16 01:02 57.69706 -82.44315 37186 ft 560 kts 74°
2026-04-16 01:02 57.71459 -82.30100 37181 ft 560 kts 74°
2026-04-16 01:03 57.73199 -82.15854 37189 ft 561 kts 74°
2026-04-16 01:03 57.74921 -82.01609 37191 ft 561 kts 74°
2026-04-16 01:04 57.76626 -81.87355 37185 ft 561 kts 74°
2026-04-16 01:04 57.78316 -81.73082 37174 ft 561 kts 75°
2026-04-16 01:05 57.79983 -81.58855 37180 ft 561 kts 75°
2026-04-16 01:05 57.81642 -81.44544 37183 ft 562 kts 75°
2026-04-16 01:06 57.83289 -81.30189 37182 ft 562 kts 75°
2026-04-16 01:06 57.84920 -81.15813 37180 ft 562 kts 75°
2026-04-16 01:07 57.86521 -81.01552 37176 ft 562 kts 75°
2026-04-16 01:07 57.88115 -80.87192 37169 ft 562 kts 75°
2026-04-16 01:08 57.89699 -80.72771 37170 ft 562 kts 75°
2026-04-16 01:08 57.91263 -80.58359 37170 ft 562 kts 75°
2026-04-16 01:09 57.92803 -80.44018 37158 ft 562 kts 75°
2026-04-16 01:09 57.94335 -80.29582 37162 ft 562 kts 76°
2026-04-16 01:10 57.95852 -80.15116 37165 ft 562 kts 76°
2026-04-16 01:10 57.97357 -80.00663 37162 ft 562 kts 73°
2026-04-16 01:11 57.99364 -79.86535 37160 ft 560 kts 71°
2026-04-16 01:11 58.01415 -79.72337 37157 ft 561 kts 71°
2026-04-16 01:12 58.03427 -79.58127 37152 ft 560 kts 71°
2026-04-16 01:12 58.05442 -79.43909 37153 ft 561 kts 71°
2026-04-16 01:13 58.07429 -79.29647 37154 ft 561 kts 71°
2026-04-16 01:13 58.09399 -79.15466 37144 ft 560 kts 71°
2026-04-16 01:14 58.11327 -79.01402 37139 ft 560 kts 72°
2026-04-16 01:14 58.13191 -78.87718 37139 ft 560 kts 72°
2026-04-16 01:15 58.15090 -78.73622 37136 ft 560 kts 72°
2026-04-16 01:15 58.17001 -78.59316 37135 ft 560 kts 72°
2026-04-16 01:16 58.18882 -78.45099 37131 ft 560 kts 72°
2026-04-16 01:16 58.20760 -78.30768 37124 ft 559 kts 72°
2026-04-16 01:17 58.22622 -78.16429 37108 ft 559 kts 72°
2026-04-16 01:17 58.24467 -78.02071 37108 ft 559 kts 72°
2026-04-16 01:18 58.26299 -77.87686 37106 ft 559 kts 73°
2026-04-16 01:18 58.28110 -77.73313 37110 ft 559 kts 73°
2026-04-16 01:19 58.29893 -77.59025 37101 ft 560 kts 73°
2026-04-16 01:19 58.31674 -77.44606 37107 ft 559 kts 73°
2026-04-16 01:20 58.33438 -77.30186 37107 ft 559 kts 73°
2026-04-16 01:20 58.35184 -77.15762 37097 ft 559 kts 73°
2026-04-16 01:21 58.36913 -77.01335 37102 ft 559 kts 73°
2026-04-16 01:21 58.38627 -76.86875 37096 ft 559 kts 74°
2026-04-16 01:22 58.40325 -76.72403 37091 ft 559 kts 74°
2026-04-16 01:22 58.41998 -76.57992 37093 ft 560 kts 74°
2026-04-16 01:23 58.43668 -76.43452 37092 ft 560 kts 74°
2026-04-16 01:23 58.45323 -76.28884 37075 ft 561 kts 74°
2026-04-16 01:24 58.46961 -76.14309 37085 ft 561 kts 75°
2026-04-16 01:24 58.48574 -75.99792 37086 ft 561 kts 75°
2026-04-16 01:25 58.50183 -75.85158 37079 ft 561 kts 75°
2026-04-16 01:25 58.51771 -75.70548 37078 ft 562 kts 75°
2026-04-16 01:26 58.53345 -75.55892 37067 ft 562 kts 75°
2026-04-16 01:26 58.54904 -75.41215 37065 ft 563 kts 75°
2026-04-16 01:27 58.56448 -75.26502 37065 ft 563 kts 75°
2026-04-16 01:27 58.57976 -75.11775 37060 ft 564 kts 76°
2026-04-16 01:28 58.59489 -74.97007 37058 ft 564 kts 76°
2026-04-16 01:28 58.60976 -74.82325 37055 ft 563 kts 76°
2026-04-16 01:29 58.62455 -74.67541 37046 ft 564 kts 76°
2026-04-16 01:29 58.63917 -74.52742 37048 ft 564 kts 76°
2026-04-16 01:30 58.65362 -74.37935 37037 ft 564 kts 76°
2026-04-16 01:30 58.66790 -74.23108 37036 ft 565 kts 77°
2026-04-16 01:31 58.68204 -74.08249 37029 ft 565 kts 77°
2026-04-16 01:31 58.69600 -73.93373 37031 ft 565 kts 77°
2026-04-16 01:32 58.70980 -73.78482 37027 ft 566 kts 77°
2026-04-16 01:32 58.72335 -73.63663 37023 ft 566 kts 77°
2026-04-16 01:33 58.73684 -73.48713 37019 ft 566 kts 77°
2026-04-16 01:33 58.74790 -73.36295 37013 ft 566 kts 77°
2026-04-16 01:34 58.76107 -73.21323 37009 ft 567 kts 78°
2026-04-16 01:34 58.77405 -73.06359 37009 ft 567 kts 78°
2026-04-16 01:35 58.78688 -72.91357 36995 ft 567 kts 78°
2026-04-16 01:35 58.79954 -72.76347 36996 ft 567 kts 78°
2026-04-16 01:36 58.81194 -72.61418 36993 ft 566 kts 78°
2026-04-16 01:36 58.82425 -72.46384 36990 ft 566 kts 78°
2026-04-16 01:37 58.83639 -72.31325 36981 ft 567 kts 78°
2026-04-16 01:37 58.84833 -72.16293 36980 ft 567 kts 79°
2026-04-16 01:38 58.86011 -72.01231 36972 ft 567 kts 79°
2026-04-16 01:38 58.87171 -71.86162 36968 ft 566 kts 79°
2026-04-16 01:39 58.88306 -71.71183 36971 ft 567 kts 79°
2026-04-16 01:39 58.89432 -71.56084 36961 ft 566 kts 79°
2026-04-16 01:40 58.90539 -71.40997 36965 ft 567 kts 80°
2026-04-16 01:40 58.91630 -71.25877 36949 ft 566 kts 80°
2026-04-16 01:41 58.92702 -71.10764 36949 ft 567 kts 80°
2026-04-16 01:41 58.93756 -70.95640 36943 ft 566 kts 80°
2026-04-16 01:42 58.94786 -70.80616 36942 ft 567 kts 81°
2026-04-16 01:42 58.95807 -70.65447 36935 ft 567 kts 81°
2026-04-16 01:43 58.96811 -70.50265 36932 ft 567 kts 81°
2026-04-16 01:43 58.97796 -70.35084 36926 ft 567 kts 81°
2026-04-16 01:44 58.98763 -70.19890 36923 ft 567 kts 81°
2026-04-16 01:44 58.99713 -70.04698 36921 ft 567 kts 82°
2026-04-16 01:45 59.01214 -69.89829 36918 ft 564 kts 74°
2026-04-16 01:45 59.03045 -69.75004 36911 ft 564 kts 75°
2026-04-16 01:46 59.04788 -69.60145 36911 ft 564 kts 75°
2026-04-16 01:46 59.06563 -69.45258 36908 ft 564 kts 75°
2026-04-16 01:47 59.08292 -69.30355 36895 ft 564 kts 75°
2026-04-16 01:47 59.10018 -69.15468 36900 ft 564 kts 75°
2026-04-16 01:48 59.11706 -69.00665 36893 ft 564 kts 76°
2026-04-16 01:48 59.13393 -68.85745 36893 ft 563 kts 76°
2026-04-16 01:49 59.15061 -68.70809 36894 ft 564 kts 76°
2026-04-16 01:49 59.16713 -68.55853 36883 ft 564 kts 76°
2026-04-16 01:50 59.18339 -68.40971 36879 ft 564 kts 76°
2026-04-16 01:50 59.19954 -68.26007 36877 ft 564 kts 76°
2026-04-16 01:51 59.21556 -68.10998 36872 ft 563 kts 76°
2026-04-16 01:51 59.23138 -67.95998 36871 ft 563 kts 77°
2026-04-16 01:52 59.24699 -67.81020 36866 ft 562 kts 77°
2026-04-16 01:52 59.26242 -67.66035 36860 ft 562 kts 77°
2026-04-16 01:53 59.27767 -67.51043 36859 ft 561 kts 77°
2026-04-16 01:53 59.29271 -67.36075 36856 ft 560 kts 77°
2026-04-16 01:54 59.30750 -67.21183 36859 ft 559 kts 78°
2026-04-16 01:54 59.32216 -67.06228 36848 ft 559 kts 78°
2026-04-16 01:55 59.33664 -66.91266 36853 ft 558 kts 78°
2026-04-16 01:55 59.35092 -66.76327 36847 ft 558 kts 78°
2026-04-16 01:56 59.36503 -66.61373 36842 ft 557 kts 78°
2026-04-16 01:56 59.37884 -66.46544 36849 ft 556 kts 79°
2026-04-16 01:57 59.39258 -66.31597 36838 ft 556 kts 79°
2026-04-16 01:57 59.40612 -66.16675 36836 ft 555 kts 79°
2026-04-16 01:58 59.41948 -66.01746 36831 ft 554 kts 79°
2026-04-16 01:58 59.43264 -65.86841 36831 ft 553 kts 79°
2026-04-16 01:59 59.44560 -65.71958 36824 ft 552 kts 79°
2026-04-16 01:59 59.45837 -65.57085 36819 ft 551 kts 80°
2026-04-16 02:00 59.47094 -65.42238 36823 ft 550 kts 80°
2026-04-16 02:00 59.48327 -65.27475 36809 ft 550 kts 80°
2026-04-16 02:01 59.49547 -65.12645 36814 ft 549 kts 81°
2026-04-16 02:01 59.50752 -64.97796 36805 ft 548 kts 81°
2026-04-16 02:02 59.51937 -64.82962 36792 ft 548 kts 81°
2026-04-16 02:02 59.53104 -64.68140 36777 ft 548 kts 82°
2026-04-16 02:03 59.54257 -64.53277 36782 ft 549 kts 82°
2026-04-16 02:03 59.55387 -64.38472 36772 ft 550 kts 82°
2026-04-16 02:04 59.57068 -64.16027 36757 ft 552 kts 82°
2026-04-16 02:04 59.58168 -64.01023 36747 ft 553 kts 83°
2026-04-16 02:05 59.59257 -63.85958 36733 ft 555 kts 83°
2026-04-16 02:05 59.60327 -63.70878 36725 ft 556 kts 83°
2026-04-16 02:06 59.61384 -63.55746 36720 ft 556 kts 83°
2026-04-16 02:06 59.62423 -63.40594 36715 ft 556 kts 83°
2026-04-16 02:07 59.63445 -63.25435 36708 ft 557 kts 83°
2026-04-16 02:07 59.64444 -63.10355 36703 ft 557 kts 83°
2026-04-16 02:08 59.65433 -62.95144 36700 ft 557 kts 84°
2026-04-16 02:08 59.66404 -62.79927 36695 ft 557 kts 84°
2026-04-16 02:09 59.67355 -62.64744 36688 ft 556 kts 84°
2026-04-16 02:09 59.68283 -62.49654 36680 ft 555 kts 84°
2026-04-16 02:10 59.69197 -62.34486 36688 ft 554 kts 84°
2026-04-16 02:10 59.70092 -62.19341 36681 ft 553 kts 84°
2026-04-16 02:11 59.70968 -62.04218 36670 ft 552 kts 84°
2026-04-16 02:11 59.71824 -61.89122 36655 ft 551 kts 84°
2026-04-16 02:12 59.72661 -61.74060 36657 ft 550 kts 85°
2026-04-16 02:12 59.73545 -61.59018 36663 ft 548 kts 82°
2026-04-16 02:13 59.74711 -61.44079 36651 ft 547 kts 82°
2026-04-16 02:13 59.75853 -61.29144 36636 ft 546 kts 82°
2026-04-16 02:14 59.76983 -61.14257 36635 ft 546 kts 82°
2026-04-16 02:14 59.78080 -60.99447 36623 ft 545 kts 82°
2026-04-16 02:15 59.79174 -60.84554 36626 ft 544 kts 83°
2026-04-16 02:15 59.80244 -60.69670 36627 ft 544 kts 83°
2026-04-16 02:16 59.81299 -60.54818 36626 ft 543 kts 83°
2026-04-16 02:16 59.82334 -60.39942 36630 ft 543 kts 83°
2026-04-16 02:17 59.83353 -60.25089 36633 ft 542 kts 83°
2026-04-16 02:17 59.84354 -60.10214 36636 ft 542 kts 84°
2026-04-16 02:18 59.85340 -59.95335 36638 ft 542 kts 84°
2026-04-16 02:18 59.86145 -59.82976 36651 ft 542 kts 84°
2026-04-16 02:19 59.87250 -59.65691 36650 ft 542 kts 84°
2026-04-16 02:19 59.88030 -59.53273 36656 ft 542 kts 84°
2026-04-16 02:20 59.88950 -59.38384 36659 ft 541 kts 84°
2026-04-16 02:20 59.89851 -59.23506 36659 ft 541 kts 84°
2026-04-16 02:21 59.90737 -59.08591 36661 ft 541 kts 85°
2026-04-16 02:21 59.91605 -58.93695 36673 ft 541 kts 85°
2026-04-16 02:22 59.92451 -58.78886 36672 ft 541 kts 85°
2026-04-16 02:22 59.93284 -58.63989 36682 ft 540 kts 85°
2026-04-16 02:23 59.94102 -58.49062 36683 ft 540 kts 85°
2026-04-16 02:23 59.94901 -58.34168 36690 ft 540 kts 85°
2026-04-16 02:24 59.95683 -58.19279 36694 ft 539 kts 85°
2026-04-16 02:24 59.96442 -58.04495 36701 ft 537 kts 85°
2026-04-16 02:25 59.96996 -57.89609 36718 ft 538 kts 87°
2026-04-16 02:25 59.97534 -57.74712 36723 ft 537 kts 88°
2026-04-16 02:26 59.97982 -57.59825 36726 ft 536 kts 88°
2026-04-16 02:26 59.98458 -57.44947 36722 ft 536 kts 88°
2026-04-16 02:27 59.98889 -57.30101 36730 ft 535 kts 88°
2026-04-16 02:27 59.99317 -57.15353 36744 ft 534 kts 88°
2026-04-16 02:28 59.99722 -57.00503 36740 ft 534 kts 89°
2026-04-16 02:28 60.00113 -56.85687 36755 ft 533 kts 89°
2026-04-16 02:29 60.00486 -56.70894 36762 ft 533 kts 89°
2026-04-16 02:29 60.00842 -56.56130 36758 ft 532 kts 89°
2026-04-16 02:30 60.01181 -56.41348 36779 ft 532 kts 89°
2026-04-16 02:30 60.01504 -56.26580 36776 ft 531 kts 89°
2026-04-16 02:31 60.01810 -56.11817 36782 ft 531 kts 89°
2026-04-16 02:31 60.02099 -55.97081 36786 ft 530 kts 89°
2026-04-16 02:32 60.02371 -55.82362 36801 ft 529 kts 89°
2026-04-16 02:32 60.02626 -55.67739 36803 ft 529 kts 90°
2026-04-16 02:33 60.02865 -55.53033 36809 ft 529 kts 90°
2026-04-16 02:33 60.03088 -55.38336 36813 ft 528 kts 90°
2026-04-16 02:34 60.03294 -55.23658 36820 ft 528 kts 90°
2026-04-16 02:34 60.03484 -55.08982 36827 ft 527 kts 90°
2026-04-16 02:35 60.03657 -54.94404 36833 ft 527 kts 90°
2026-04-16 02:35 60.03814 -54.79763 36837 ft 526 kts 90°
2026-04-16 02:36 60.03955 -54.65116 36842 ft 526 kts 90°
2026-04-16 02:36 60.04080 -54.50486 36851 ft 525 kts 91°
2026-04-16 02:37 60.04188 -54.35877 36854 ft 525 kts 91°
2026-04-16 02:37 60.04280 -54.21277 36863 ft 525 kts 91°
2026-04-16 02:38 60.04356 -54.06657 36864 ft 524 kts 91°
2026-04-16 02:38 60.04416 -53.92153 36870 ft 524 kts 91°
2026-04-16 02:39 60.04460 -53.77564 36875 ft 524 kts 91°
2026-04-16 02:39 60.04487 -53.62977 36879 ft 524 kts 91°
2026-04-16 02:40 60.04499 -53.48402 36881 ft 524 kts 91°
2026-04-16 02:40 60.04495 -53.33819 36888 ft 523 kts 91°
2026-04-16 02:41 60.04475 -53.19346 36898 ft 523 kts 92°
2026-04-16 02:41 60.04439 -53.04776 36899 ft 523 kts 92°
2026-04-16 02:42 60.04386 -52.90219 36913 ft 523 kts 92°
2026-04-16 02:42 60.04318 -52.75642 36919 ft 523 kts 92°
2026-04-16 02:43 60.04234 -52.61135 36918 ft 523 kts 92°
2026-04-16 02:43 60.04134 -52.46575 36929 ft 523 kts 92°
2026-04-16 02:44 60.04018 -52.32003 36934 ft 523 kts 92°
2026-04-16 02:44 60.03887 -52.17565 36937 ft 522 kts 92°
2026-04-16 02:45 60.03739 -52.03034 36942 ft 522 kts 93°
2026-04-16 02:45 60.03575 -51.88532 36947 ft 521 kts 93°
2026-04-16 02:46 60.03396 -51.74041 36952 ft 521 kts 93°
2026-04-16 02:46 60.03201 -51.59553 36954 ft 521 kts 93°
2026-04-16 02:47 60.02990 -51.45079 36966 ft 520 kts 93°
2026-04-16 02:47 60.02764 -51.30614 36964 ft 520 kts 94°
2026-04-16 02:48 60.02522 -51.16143 36973 ft 520 kts 94°
2026-04-16 02:48 60.02265 -51.01777 36976 ft 520 kts 94°
2026-04-16 02:49 60.01992 -50.87332 36983 ft 520 kts 94°
2026-04-16 02:49 60.01703 -50.72894 36985 ft 520 kts 94°
2026-04-16 02:50 60.01398 -50.58455 36992 ft 520 kts 94°
2026-04-16 02:50 60.01077 -50.44016 36989 ft 519 kts 94°
2026-04-16 02:51 60.00741 -50.29588 36978 ft 519 kts 94°
2026-04-16 02:51 60.00389 -50.15174 36988 ft 519 kts 94°
2026-04-16 02:52 60.00025 -50.00849 36989 ft 519 kts 94°
2026-04-16 02:52 59.99853 -49.86430 36998 ft 519 kts 93°
2026-04-16 02:53 59.99634 -49.71997 36990 ft 519 kts 92°
2026-04-16 02:53 59.99450 -49.57587 36989 ft 518 kts 93°
2026-04-16 02:54 59.99215 -49.43279 36983 ft 517 kts 93°
2026-04-16 02:54 59.98988 -49.28915 36980 ft 517 kts 93°
2026-04-16 02:55 59.98730 -49.14547 36989 ft 517 kts 93°
2026-04-16 02:55 59.98466 -49.00210 36984 ft 516 kts 94°
2026-04-16 02:56 59.98181 -48.85877 36980 ft 516 kts 94°
2026-04-16 02:56 59.97885 -48.71560 36976 ft 516 kts 94°
2026-04-16 02:57 59.97571 -48.57259 36975 ft 515 kts 94°
2026-04-16 02:57 59.97245 -48.43049 36972 ft 514 kts 94°
2026-04-16 02:58 59.96901 -48.28789 36971 ft 515 kts 94°
2026-04-16 02:58 59.96542 -48.14505 36968 ft 515 kts 94°
2026-04-16 02:59 59.96168 -48.00216 36963 ft 515 kts 94°
2026-04-16 02:59 59.95780 -47.86042 36957 ft 515 kts 95°
2026-04-16 03:00 59.95375 -47.71770 36954 ft 515 kts 95°
2026-04-16 03:00 59.94954 -47.57511 36949 ft 515 kts 95°
2026-04-16 03:01 59.94518 -47.43227 36947 ft 516 kts 95°
2026-04-16 03:01 59.94066 -47.28948 36936 ft 515 kts 95°
2026-04-16 03:02 59.93599 -47.14687 36944 ft 515 kts 95°
2026-04-16 03:02 59.93116 -47.00412 36932 ft 516 kts 96°
2026-04-16 03:03 59.92617 -46.86145 36933 ft 516 kts 96°
2026-04-16 03:03 59.92107 -46.71961 36932 ft 515 kts 96°
2026-04-16 03:04 59.91577 -46.57714 36933 ft 515 kts 96°
2026-04-16 03:04 59.91034 -46.43468 36929 ft 515 kts 96°
2026-04-16 03:05 59.90475 -46.29236 36923 ft 515 kts 96°
2026-04-16 03:05 59.89900 -46.15023 36920 ft 515 kts 96°
2026-04-16 03:06 59.89412 -46.03210 36920 ft 514 kts 96°
2026-04-16 03:07 59.88504 -45.81910 36912 ft 514 kts 96°
2026-04-16 03:07 59.87880 -45.67731 36919 ft 514 kts 97°
2026-04-16 03:08 59.87240 -45.53545 36915 ft 514 kts 97°
2026-04-16 03:08 59.86587 -45.39399 36905 ft 513 kts 97°
2026-04-16 03:09 59.85922 -45.25329 36896 ft 513 kts 97°
2026-04-16 03:09 59.85238 -45.11199 36886 ft 513 kts 97°
2026-04-16 03:10 59.84540 -44.97080 36880 ft 512 kts 97°
2026-04-16 03:10 59.83828 -44.82987 36875 ft 512 kts 97°
2026-04-16 03:11 59.83098 -44.68868 36870 ft 512 kts 97°
2026-04-16 03:11 59.82356 -44.54782 36858 ft 512 kts 97°
2026-04-16 03:12 59.81597 -44.40697 36857 ft 513 kts 98°
2026-04-16 03:12 59.80830 -44.26718 36846 ft 512 kts 98°
2026-04-16 03:13 59.80043 -44.12678 36836 ft 511 kts 98°
2026-04-16 03:13 59.79243 -43.98647 36832 ft 510 kts 98°
2026-04-16 03:14 59.78427 -43.84642 36826 ft 510 kts 98°
2026-04-16 03:14 59.77600 -43.70676 36817 ft 509 kts 98°
2026-04-16 03:15 59.76757 -43.56710 36812 ft 509 kts 98°
2026-04-16 03:15 59.75905 -43.42847 36807 ft 509 kts 98°
2026-04-16 03:16 59.75033 -43.28910 36802 ft 509 kts 98°
2026-04-16 03:16 59.74144 -43.14934 36799 ft 509 kts 98°
2026-04-16 03:17 59.73248 -43.01091 36799 ft 509 kts 99°
2026-04-16 03:17 59.72331 -42.87167 36801 ft 509 kts 99°
2026-04-16 03:18 59.71399 -42.73241 36806 ft 510 kts 99°
2026-04-16 03:18 59.70454 -42.59328 36800 ft 509 kts 99°
2026-04-16 03:19 59.69491 -42.45398 36797 ft 509 kts 99°
2026-04-16 03:19 59.68522 -42.31598 36799 ft 509 kts 99°
2026-04-16 03:20 59.67533 -42.17719 36798 ft 509 kts 99°
2026-04-16 03:20 59.66522 -42.03750 36799 ft 510 kts 100°
2026-04-16 03:21 59.65508 -41.89958 36798 ft 510 kts 100°
2026-04-16 03:21 59.64473 -41.76087 36799 ft 510 kts 100°
2026-04-16 03:22 59.63426 -41.62241 36797 ft 509 kts 100°
2026-04-16 03:22 59.62362 -41.48394 36795 ft 509 kts 100°
2026-04-16 03:23 59.61285 -41.34582 36795 ft 508 kts 100°
2026-04-16 03:23 59.60195 -41.20765 36794 ft 508 kts 100°
2026-04-16 03:24 59.59096 -41.07061 36796 ft 508 kts 101°
2026-04-16 03:24 59.57978 -40.93279 36798 ft 508 kts 101°
2026-04-16 03:25 59.56844 -40.79513 36788 ft 507 kts 101°
2026-04-16 03:25 59.55699 -40.65785 36793 ft 507 kts 101°
2026-04-16 03:26 59.54541 -40.52079 36788 ft 506 kts 101°
2026-04-16 03:26 59.53373 -40.38435 36790 ft 507 kts 101°
2026-04-16 03:27 59.52185 -40.24731 36788 ft 507 kts 101°
2026-04-16 03:27 59.50982 -40.11040 36786 ft 507 kts 101°
2026-04-16 03:28 59.49842 -39.97345 36808 ft 507 kts 98°
2026-04-16 03:28 59.49016 -39.83532 36793 ft 508 kts 98°
2026-04-16 03:29 59.48166 -39.69717 36790 ft 508 kts 98°
2026-04-16 03:29 59.47316 -39.56015 36783 ft 508 kts 98°
2026-04-16 03:30 59.46440 -39.42225 36780 ft 508 kts 98°
2026-04-16 03:30 59.45551 -39.28412 36780 ft 509 kts 98°
2026-04-16 03:31 59.44645 -39.14606 36772 ft 509 kts 99°
2026-04-16 03:31 59.43726 -39.00792 36772 ft 509 kts 99°
2026-04-16 03:32 59.42789 -38.86980 36772 ft 510 kts 99°
2026-04-16 03:34 59.38909 -38.31895 36759 ft 510 kts 99°
2026-04-16 03:34 59.37900 -38.18116 36759 ft 510 kts 99°
2026-04-16 03:35 59.36877 -38.04350 36754 ft 510 kts 99°
2026-04-16 03:35 59.35843 -37.90624 36753 ft 508 kts 100°
2026-04-16 03:36 59.34800 -37.77002 36744 ft 508 kts 100°
2026-04-16 03:36 59.33741 -37.63323 36745 ft 508 kts 100°
2026-04-16 03:37 59.32661 -37.49623 36741 ft 508 kts 100°
2026-04-16 03:37 59.31572 -37.35953 36738 ft 508 kts 100°
2026-04-16 03:38 59.30466 -37.22291 36741 ft 509 kts 100°
2026-04-16 03:38 59.29354 -37.08706 36736 ft 508 kts 101°
2026-04-16 03:39 59.28218 -36.95058 36730 ft 508 kts 101°
2026-04-16 03:39 59.27072 -36.81423 36727 ft 508 kts 101°
2026-04-16 03:40 59.25909 -36.67795 36724 ft 509 kts 101°
2026-04-16 03:40 59.24732 -36.54156 36722 ft 508 kts 101°
2026-04-16 03:41 59.23541 -36.40541 36720 ft 508 kts 101°
2026-04-16 03:41 59.22342 -36.27011 36727 ft 508 kts 101°
2026-04-16 03:42 59.21120 -36.13396 36724 ft 508 kts 101°
2026-04-16 03:42 59.19887 -35.99803 36719 ft 509 kts 101°
2026-04-16 03:43 59.18638 -35.86215 36720 ft 509 kts 102°
2026-04-16 03:43 59.17376 -35.72641 36710 ft 509 kts 102°
2026-04-16 03:44 59.16098 -35.59067 36707 ft 509 kts 102°
2026-04-16 03:44 59.14813 -35.45577 36694 ft 509 kts 102°
2026-04-16 03:45 59.13507 -35.32036 36697 ft 508 kts 102°
2026-04-16 03:45 59.12190 -35.18512 36692 ft 508 kts 102°
2026-04-16 03:46 59.10857 -35.04976 36688 ft 508 kts 102°
2026-04-16 03:46 59.09508 -34.91458 36686 ft 508 kts 102°
2026-04-16 03:47 59.08157 -34.78045 36687 ft 508 kts 102°
2026-04-16 03:47 59.06778 -34.64531 36677 ft 508 kts 103°
2026-04-16 03:48 59.05390 -34.51061 36671 ft 508 kts 102°
2026-04-16 03:48 59.03987 -34.37587 36668 ft 508 kts 103°
2026-04-16 03:49 59.02578 -34.24204 36668 ft 508 kts 103°
2026-04-16 03:49 59.01146 -34.10750 36661 ft 508 kts 103°
2026-04-16 03:50 58.99702 -33.97322 36657 ft 508 kts 103°
2026-04-16 03:50 58.98243 -33.83894 36654 ft 508 kts 103°
2026-04-16 03:51 58.96780 -33.70561 36652 ft 508 kts 103°
2026-04-16 03:51 58.95295 -33.57182 36646 ft 508 kts 103°
2026-04-16 03:52 58.94050 -33.46053 36650 ft 508 kts 103°
2026-04-16 03:52 58.92541 -33.32703 36649 ft 508 kts 103°
2026-04-16 03:53 58.91019 -33.19360 36641 ft 508 kts 103°
2026-04-16 03:53 58.89482 -33.06027 36642 ft 508 kts 104°
2026-04-16 03:54 58.87932 -32.92701 36636 ft 508 kts 104°
2026-04-16 03:54 58.86369 -32.79406 36635 ft 507 kts 104°
2026-04-16 03:55 58.84793 -32.66115 36630 ft 508 kts 104°
2026-04-16 03:55 58.83201 -32.52822 36628 ft 507 kts 104°
2026-04-16 03:56 58.81596 -32.39552 36624 ft 507 kts 104°
2026-04-16 03:56 58.79989 -32.26389 36621 ft 507 kts 104°
2026-04-16 03:57 58.78359 -32.13145 36621 ft 507 kts 104°
2026-04-16 03:57 58.76714 -31.99916 36620 ft 508 kts 104°
2026-04-16 03:58 58.75053 -31.86690 36617 ft 508 kts 104°
2026-04-16 03:58 58.73380 -31.73467 36610 ft 508 kts 105°
2026-04-16 03:59 58.71696 -31.60281 36611 ft 507 kts 105°
2026-04-16 03:59 58.69998 -31.47116 36608 ft 506 kts 105°
2026-04-16 04:00 58.68291 -31.33988 36602 ft 506 kts 105°
2026-04-16 04:00 58.66568 -31.20853 36602 ft 506 kts 105°
2026-04-16 04:01 58.64834 -31.07744 36597 ft 506 kts 105°
2026-04-16 04:01 58.63096 -30.94736 36599 ft 506 kts 105°
2026-04-16 04:02 58.61336 -30.81651 36592 ft 506 kts 105°
2026-04-16 04:02 58.59558 -30.68562 36587 ft 507 kts 105°
2026-04-16 04:03 58.57767 -30.55480 36590 ft 507 kts 106°
2026-04-16 04:03 58.55961 -30.42402 36588 ft 507 kts 106°
2026-04-16 04:04 58.54146 -30.29368 36586 ft 506 kts 106°
2026-04-16 04:04 58.52317 -30.16338 36585 ft 507 kts 106°
2026-04-16 04:05 58.50485 -30.03399 36583 ft 507 kts 106°
2026-04-16 04:05 58.48965 -29.90220 36590 ft 508 kts 102°
2026-04-16 04:06 58.47550 -29.77006 36588 ft 507 kts 102°
2026-04-16 04:06 58.46124 -29.63823 36580 ft 507 kts 102°
2026-04-16 04:07 58.44695 -29.50740 36580 ft 507 kts 102°
2026-04-16 04:07 58.42512 -29.31010 36575 ft 506 kts 103°
2026-04-16 04:08 58.41041 -29.17878 36571 ft 506 kts 103°
2026-04-16 04:08 58.39554 -29.04740 36567 ft 506 kts 103°
2026-04-16 04:09 58.38054 -28.91610 36565 ft 507 kts 103°
2026-04-16 04:09 58.36549 -28.78566 36573 ft 507 kts 103°
2026-04-16 04:10 58.35022 -28.65455 36573 ft 507 kts 103°
2026-04-16 04:10 58.33478 -28.52336 36569 ft 507 kts 103°
2026-04-16 04:11 58.31921 -28.39226 36556 ft 507 kts 103°
2026-04-16 04:11 58.30354 -28.26148 36559 ft 507 kts 103°
2026-04-16 04:12 58.28773 -28.13089 36559 ft 507 kts 103°
2026-04-16 04:12 58.27190 -28.00124 36555 ft 507 kts 103°
2026-04-16 04:13 58.25583 -27.87087 36551 ft 506 kts 103°
2026-04-16 04:13 58.23963 -27.74064 36557 ft 506 kts 103°
2026-04-16 04:14 58.22330 -27.61055 36549 ft 506 kts 104°
2026-04-16 04:14 58.20685 -27.48066 36544 ft 505 kts 104°
2026-04-16 04:15 58.19029 -27.35103 36545 ft 506 kts 104°
2026-04-16 04:15 58.17370 -27.22237 36545 ft 506 kts 104°
2026-04-16 04:16 58.15688 -27.09300 36545 ft 506 kts 104°
2026-04-16 04:16 58.13992 -26.96373 36542 ft 505 kts 104°
2026-04-16 04:17 58.12281 -26.83448 36534 ft 506 kts 104°
2026-04-16 04:17 58.10560 -26.70547 36538 ft 506 kts 104°
2026-04-16 04:18 58.08825 -26.57655 36531 ft 506 kts 104°
2026-04-16 04:18 58.07088 -26.44862 36534 ft 506 kts 104°
2026-04-16 04:19 58.05325 -26.31979 36534 ft 506 kts 105°
2026-04-16 04:19 58.03549 -26.19111 36530 ft 506 kts 105°
2026-04-16 04:20 58.01762 -26.06269 36528 ft 505 kts 105°
2026-04-16 04:20 57.99964 -25.93456 36527 ft 505 kts 105°
2026-04-16 04:21 57.98154 -25.80658 36529 ft 505 kts 105°
2026-04-16 04:21 57.96330 -25.67869 36527 ft 506 kts 105°
2026-04-16 04:22 57.94504 -25.55164 36523 ft 506 kts 105°
2026-04-16 04:22 57.92649 -25.42364 36524 ft 506 kts 105°
2026-04-16 04:23 57.90784 -25.29591 36521 ft 506 kts 106°
2026-04-16 04:23 57.88905 -25.16832 36523 ft 505 kts 106°
2026-04-16 04:24 57.87031 -25.04198 36520 ft 505 kts 106°
2026-04-16 04:24 57.85132 -24.91496 36518 ft 504 kts 106°
2026-04-16 04:25 57.83220 -24.78806 36523 ft 505 kts 106°
2026-04-16 04:25 57.81297 -24.66143 36521 ft 504 kts 107°
2026-04-16 04:26 57.79362 -24.53497 36522 ft 505 kts 107°
2026-04-16 04:26 57.77415 -24.40864 36520 ft 505 kts 107°
2026-04-16 04:27 57.75463 -24.28297 36519 ft 505 kts 107°
2026-04-16 04:27 57.73489 -24.15676 36515 ft 505 kts 107°
2026-04-16 04:28 57.71499 -24.03056 36512 ft 504 kts 107°
2026-04-16 04:28 57.69502 -23.90479 36518 ft 503 kts 107°
2026-04-16 04:29 57.67505 -23.77996 36514 ft 504 kts 107°
2026-04-16 04:29 57.65482 -23.65437 36519 ft 504 kts 108°
2026-04-16 04:30 57.63446 -23.52898 36514 ft 504 kts 108°
2026-04-16 04:30 57.61403 -23.40395 36518 ft 503 kts 108°
2026-04-16 04:31 57.59358 -23.27976 36515 ft 503 kts 108°
2026-04-16 04:31 57.57287 -23.15487 36514 ft 503 kts 108°
2026-04-16 04:32 57.55208 -23.03040 36516 ft 503 kts 108°
2026-04-16 04:32 57.53119 -22.90612 36518 ft 502 kts 108°
2026-04-16 04:33 57.51018 -22.78206 36515 ft 502 kts 109°
2026-04-16 04:33 57.48905 -22.65814 36514 ft 502 kts 109°
2026-04-16 04:34 57.46797 -22.53538 36506 ft 501 kts 109°
2026-04-16 04:34 57.44666 -22.41210 36514 ft 501 kts 109°
2026-04-16 04:35 57.42523 -22.28896 36505 ft 501 kts 109°
2026-04-16 04:35 57.40371 -22.16611 36506 ft 500 kts 109°
2026-04-16 04:36 57.38573 -22.06412 36504 ft 500 kts 109°
2026-04-16 04:36 57.36042 -21.92154 36504 ft 500 kts 110°
2026-04-16 04:37 57.34225 -21.81983 36504 ft 500 kts 110°
2026-04-16 04:37 57.32017 -21.69697 36504 ft 499 kts 110°
2026-04-16 04:38 57.29826 -21.57588 36503 ft 499 kts 110°
2026-04-16 04:38 57.27609 -21.45413 36504 ft 499 kts 110°
2026-04-16 04:39 57.25386 -21.33285 36504 ft 498 kts 110°
2026-04-16 04:39 57.23150 -21.21163 36503 ft 497 kts 111°
2026-04-16 04:40 57.20903 -21.09062 36501 ft 497 kts 111°
2026-04-16 04:40 57.18667 -20.97091 36505 ft 496 kts 111°
2026-04-16 04:41 57.16400 -20.85040 36509 ft 496 kts 111°
2026-04-16 04:41 57.14127 -20.73027 36508 ft 496 kts 111°
2026-04-16 04:42 57.11845 -20.61036 36510 ft 495 kts 111°
2026-04-16 04:42 57.09572 -20.49173 36509 ft 494 kts 111°
2026-04-16 04:43 57.07275 -20.37259 36510 ft 494 kts 112°
2026-04-16 04:43 57.04967 -20.25361 36513 ft 494 kts 112°
2026-04-16 04:44 57.02650 -20.13489 36514 ft 494 kts 112°
2026-04-16 04:44 57.00323 -20.01633 36511 ft 493 kts 112°
2026-04-16 04:45 56.98198 -19.89644 36513 ft 494 kts 110°
2026-04-16 04:45 56.96070 -19.77743 36516 ft 494 kts 110°
2026-04-16 04:46 56.93958 -19.65770 36523 ft 494 kts 111°
2026-04-16 04:46 56.91808 -19.53817 36524 ft 493 kts 111°
2026-04-16 04:47 56.89663 -19.41875 36519 ft 493 kts 111°
2026-04-16 04:47 56.87501 -19.29968 36520 ft 493 kts 111°
2026-04-16 04:48 56.85335 -19.18088 36518 ft 492 kts 111°
2026-04-16 04:48 56.83160 -19.06244 36516 ft 491 kts 111°
2026-04-16 04:49 56.80975 -18.94416 36523 ft 491 kts 111°
2026-04-16 04:49 56.78793 -18.82685 36521 ft 491 kts 111°
2026-04-16 04:50 56.76586 -18.70890 36524 ft 491 kts 112°
2026-04-16 04:50 56.74373 -18.59132 36526 ft 489 kts 112°
2026-04-16 04:51 56.72155 -18.47425 36526 ft 488 kts 112°
2026-04-16 04:51 56.69929 -18.35743 36529 ft 489 kts 112°
2026-04-16 04:52 56.67683 -18.24032 36527 ft 490 kts 112°
2026-04-16 04:52 56.65440 -18.12402 36526 ft 489 kts 112°
2026-04-16 04:53 56.63178 -18.00748 36541 ft 489 kts 113°
2026-04-16 04:53 56.60903 -17.89093 36539 ft 488 kts 113°
2026-04-16 04:54 56.58623 -17.77483 36541 ft 488 kts 113°
2026-04-16 04:54 56.56334 -17.65897 36537 ft 487 kts 113°
2026-04-16 04:55 56.54019 -17.54266 36548 ft 497 kts 112°
2026-04-16 04:55 56.51616 -17.42239 36552 ft 516 kts 112°
2026-04-16 04:56 56.49170 -17.30073 36563 ft 519 kts 112°
2026-04-16 04:56 56.46680 -17.17775 36559 ft 520 kts 113°
2026-04-16 04:57 56.44182 -17.05510 36560 ft 520 kts 113°
2026-04-16 04:57 56.41671 -16.93256 36562 ft 520 kts 113°
2026-04-16 04:58 56.39144 -16.81002 36559 ft 520 kts 113°
2026-04-16 04:58 56.36604 -16.68757 36556 ft 520 kts 113°
2026-04-16 04:59 56.34055 -16.56542 36560 ft 520 kts 114°
2026-04-16 04:59 56.31509 -16.44416 36560 ft 520 kts 114°
2026-04-16 05:00 56.28935 -16.32233 36562 ft 520 kts 114°
2026-04-16 05:00 56.26345 -16.20041 36564 ft 520 kts 114°
2026-04-16 05:01 56.23749 -16.07898 36570 ft 520 kts 114°
2026-04-16 05:01 56.21138 -15.95756 36580 ft 520 kts 114°
2026-04-16 05:02 56.18515 -15.83632 36589 ft 521 kts 114°
2026-04-16 05:02 56.15896 -15.71593 36586 ft 521 kts 114°
2026-04-16 05:03 56.13249 -15.59500 36582 ft 521 kts 115°
2026-04-16 05:04 56.09246 -15.41343 36581 ft 521 kts 115°
2026-04-16 05:04 56.06585 -15.29359 36583 ft 521 kts 115°
2026-04-16 05:05 56.03890 -15.17293 36589 ft 521 kts 115°
2026-04-16 05:05 56.01199 -15.05238 36591 ft 522 kts 111°
2026-04-16 05:05 56.00292 -14.98934 36620 ft 527 kts 100°
2026-04-16 05:06 56.00030 -14.92375 36622 ft 531 kts 92°
2026-04-16 05:06 56.00066 -14.79164 36610 ft 531 kts 91°
2026-04-16 05:07 56.00096 -14.66057 36610 ft 531 kts 92°
2026-04-16 05:07 56.00099 -14.52855 36612 ft 531 kts 91°
2026-04-16 05:08 56.00101 -14.39658 36614 ft 531 kts 92°
2026-04-16 05:08 56.00079 -14.26574 36612 ft 531 kts 92°
2026-04-16 05:09 56.00050 -14.13360 36612 ft 531 kts 92°
2026-04-16 05:09 55.99814 -14.00259 36639 ft 528 kts 102°
2026-04-16 05:10 55.97907 -13.87664 36622 ft 524 kts 110°
2026-04-16 05:10 55.95737 -13.75214 36627 ft 525 kts 110°
2026-04-16 05:11 55.93594 -13.62770 36627 ft 525 kts 110°
2026-04-16 05:11 55.91415 -13.50350 36629 ft 524 kts 110°
2026-04-16 05:12 55.89239 -13.37943 36628 ft 523 kts 110°
2026-04-16 05:12 55.87059 -13.25647 36625 ft 523 kts 110°
2026-04-16 05:13 55.84858 -13.13292 36624 ft 523 kts 111°
2026-04-16 05:13 55.82639 -13.00932 36626 ft 523 kts 111°
2026-04-16 05:14 55.80413 -12.88607 36633 ft 524 kts 111°
2026-04-16 05:14 55.78171 -12.76279 36637 ft 524 kts 111°
2026-04-16 05:15 55.75925 -12.64012 36641 ft 524 kts 111°
2026-04-16 05:15 55.73659 -12.51713 36641 ft 524 kts 111°
2026-04-16 05:16 55.71377 -12.39417 36645 ft 525 kts 111°
2026-04-16 05:16 55.69084 -12.27135 36652 ft 525 kts 111°
2026-04-16 05:17 55.66778 -12.14867 36652 ft 525 kts 111°
2026-04-16 05:17 55.64458 -12.02597 36655 ft 525 kts 112°
2026-04-16 05:18 55.62125 -11.90348 36656 ft 526 kts 112°
2026-04-16 05:18 55.59778 -11.78098 36672 ft 526 kts 112°
2026-04-16 05:19 55.57419 -11.65861 36670 ft 526 kts 112°
2026-04-16 05:19 55.55044 -11.53625 36670 ft 526 kts 112°
2026-04-16 05:20 55.52666 -11.41449 36674 ft 526 kts 112°
2026-04-16 05:20 55.50266 -11.29237 36683 ft 526 kts 112°
2026-04-16 05:21 55.47856 -11.17048 36678 ft 526 kts 112°
2026-04-16 05:21 55.45432 -11.04867 36687 ft 526 kts 112°
2026-04-16 05:22 55.43409 -10.94761 36687 ft 527 kts 112°
2026-04-16 05:22 55.40562 -10.80621 36692 ft 527 kts 113°
2026-04-16 05:23 55.38514 -10.70513 36692 ft 527 kts 113°
2026-04-16 05:23 55.36041 -10.58371 36698 ft 527 kts 113°
2026-04-16 05:24 55.33552 -10.46230 36702 ft 527 kts 113°
2026-04-16 05:24 55.31056 -10.34130 36705 ft 527 kts 113°
2026-04-16 05:25 55.28566 -10.22126 36714 ft 526 kts 113°
2026-04-16 05:25 55.26155 -10.10573 36716 ft 527 kts 114°
2026-04-16 05:26 55.23669 -9.98496 36724 ft 528 kts 110°
2026-04-16 05:26 55.21515 -9.86168 36734 ft 529 kts 110°
2026-04-16 05:27 55.19332 -9.73837 36727 ft 530 kts 110°
2026-04-16 05:27 55.17149 -9.61529 36728 ft 530 kts 110°
2026-04-16 05:28 55.14946 -9.49236 36747 ft 530 kts 110°
2026-04-16 05:28 55.12748 -9.37025 36738 ft 530 kts 111°
2026-04-16 05:29 55.10518 -9.24736 36741 ft 530 kts 111°
2026-04-16 05:29 55.08282 -9.12480 36750 ft 530 kts 111°
2026-04-16 05:30 55.06031 -9.00235 36745 ft 530 kts 111°
2026-04-16 05:30 55.03803 -8.88187 36751 ft 530 kts 111°
2026-04-16 05:31 55.01526 -8.75957 36750 ft 530 kts 111°
2026-04-16 05:31 54.99238 -8.63750 36749 ft 529 kts 111°
2026-04-16 05:32 54.96955 -8.51646 36739 ft 530 kts 111°
2026-04-16 05:32 54.94641 -8.39452 36739 ft 530 kts 112°
2026-04-16 05:33 54.92315 -8.27279 36744 ft 530 kts 112°
2026-04-16 05:33 54.89975 -8.15108 36755 ft 530 kts 112°
2026-04-16 05:34 54.87625 -8.02958 36763 ft 531 kts 112°
2026-04-16 05:34 54.85261 -7.90818 36783 ft 531 kts 112°
2026-04-16 05:35 54.82895 -7.78742 36787 ft 531 kts 112°
2026-04-16 05:35 54.80502 -7.66604 36794 ft 532 kts 112°
2026-04-16 05:36 54.78096 -7.54473 36802 ft 532 kts 112°
2026-04-16 05:36 54.75676 -7.42351 36807 ft 533 kts 112°
2026-04-16 05:37 54.73240 -7.30222 36802 ft 533 kts 113°
2026-04-16 05:37 54.70794 -7.18123 36809 ft 533 kts 113°
2026-04-16 05:38 54.68334 -7.06020 36824 ft 534 kts 113°
2026-04-16 05:38 54.65875 -6.94001 36822 ft 534 kts 113°
2026-04-16 05:39 54.63384 -6.81900 36827 ft 535 kts 113°
2026-04-16 05:39 54.60880 -6.69808 36830 ft 535 kts 113°
2026-04-16 05:40 54.58363 -6.57724 36826 ft 535 kts 114°
2026-04-16 05:40 54.55828 -6.45629 36832 ft 536 kts 114°
2026-04-16 05:41 54.53285 -6.33565 36826 ft 536 kts 114°
2026-04-16 05:41 54.50743 -6.21582 36840 ft 536 kts 114°
2026-04-16 05:42 54.48167 -6.09509 36841 ft 536 kts 114°
2026-04-16 05:42 54.45586 -5.97481 36848 ft 536 kts 114°
2026-04-16 05:43 54.42989 -5.85451 36856 ft 537 kts 114°
2026-04-16 05:43 54.40382 -5.73446 36854 ft 537 kts 114°
2026-04-16 05:44 54.37760 -5.61441 36863 ft 537 kts 114°
2026-04-16 05:44 54.35129 -5.49463 36865 ft 536 kts 114°
2026-04-16 05:45 54.32504 -5.37586 36875 ft 536 kts 114°
2026-04-16 05:45 54.29850 -5.25644 36876 ft 536 kts 115°
2026-04-16 05:46 54.27186 -5.13721 36881 ft 536 kts 115°
2026-04-16 05:46 54.24510 -5.01815 36882 ft 534 kts 115°
2026-04-16 05:47 54.21827 -4.89947 36878 ft 535 kts 115°
2026-04-16 05:47 54.19132 -4.78091 36876 ft 535 kts 115°
2026-04-16 05:48 54.16425 -4.66250 36895 ft 534 kts 115°
2026-04-16 05:48 54.13727 -4.54513 36884 ft 534 kts 115°
2026-04-16 05:49 54.11002 -4.42729 36881 ft 534 kts 115°
2026-04-16 05:49 54.08260 -4.30931 36888 ft 534 kts 115°
2026-04-16 05:50 54.05509 -4.19161 36896 ft 534 kts 115°
2026-04-16 05:50 54.02767 -4.07493 36906 ft 534 kts 116°
2026-04-16 05:51 53.99991 -3.95746 36923 ft 534 kts 116°
2026-04-16 05:51 53.97212 -3.84048 36920 ft 534 kts 116°
2026-04-16 05:52 53.94414 -3.72336 36932 ft 534 kts 116°
2026-04-16 05:52 53.91612 -3.60665 36926 ft 534 kts 116°
2026-04-16 05:53 53.88817 -3.49074 36932 ft 534 kts 114°
2026-04-16 05:53 53.86240 -3.37222 36936 ft 535 kts 114°
2026-04-16 05:54 53.83627 -3.25390 36937 ft 535 kts 114°
2026-04-16 05:54 53.81053 -3.13639 36934 ft 534 kts 114°
2026-04-16 05:55 53.78434 -3.01872 36929 ft 534 kts 114°
2026-04-16 05:55 53.75820 -2.90108 36933 ft 534 kts 114°
2026-04-16 05:56 53.73181 -2.78356 36933 ft 534 kts 114°
2026-04-16 05:56 53.70539 -2.66619 36947 ft 534 kts 114°
2026-04-16 05:57 53.67880 -2.54899 36946 ft 534 kts 114°
2026-04-16 05:57 53.65232 -2.43272 36956 ft 534 kts 114°
2026-04-16 05:58 53.62556 -2.31597 36954 ft 533 kts 114°
2026-04-16 05:58 53.59872 -2.19952 36968 ft 533 kts 114°
2026-04-16 05:59 53.57173 -2.08312 36968 ft 534 kts 115°
2026-04-16 05:59 53.54482 -1.96764 36967 ft 534 kts 115°
2026-04-16 06:00 53.51952 -1.84968 36963 ft 537 kts 109°
2026-04-16 06:00 53.49863 -1.72894 36961 ft 538 kts 109°
2026-04-16 06:01 53.47714 -1.60854 36960 ft 538 kts 110°
2026-04-16 06:01 53.45582 -1.48880 36973 ft 538 kts 109°
2026-04-16 06:02 53.42318 -1.30819 36973 ft 539 kts 110°
2026-04-16 06:02 53.40152 -1.18853 36968 ft 539 kts 110°
2026-04-16 06:03 53.37955 -1.06830 36973 ft 539 kts 110°
2026-04-16 06:03 53.35750 -0.94832 36984 ft 538 kts 110°
2026-04-16 06:04 53.33534 -0.82858 36993 ft 538 kts 110°
2026-04-16 06:04 53.31308 -0.70903 37004 ft 538 kts 110°
2026-04-16 06:05 53.29066 -0.58951 37008 ft 538 kts 110°
2026-04-16 06:05 53.26811 -0.47024 37015 ft 538 kts 110°
2026-04-16 06:06 53.24564 -0.35175 37011 ft 538 kts 110°
2026-04-16 06:06 53.22290 -0.23246 37013 ft 538 kts 110°
2026-04-16 06:07 53.19996 -0.11357 37013 ft 538 kts 110°
2026-04-16 06:07 53.17699 0.00514 37011 ft 538 kts 111°
2026-04-16 06:08 53.15778 0.10379 37013 ft 537 kts 110°
2026-04-16 06:08 53.13084 0.24136 37021 ft 537 kts 111°
2026-04-16 06:09 53.11146 0.33973 37026 ft 537 kts 111°
2026-04-16 06:09 53.08806 0.45781 37030 ft 537 kts 111°
2026-04-16 06:10 53.06457 0.57566 37046 ft 536 kts 111°
2026-04-16 06:10 53.04096 0.69335 37059 ft 536 kts 111°
2026-04-16 06:11 53.01720 0.81113 37063 ft 536 kts 111°
2026-04-16 06:11 52.99356 0.92760 37065 ft 536 kts 111°
2026-04-16 06:12 52.96867 1.04403 37070 ft 535 kts 114°
2026-04-16 06:12 52.94287 1.16002 37075 ft 535 kts 113°
2026-04-16 06:13 52.91650 1.27549 37073 ft 534 kts 114°
2026-04-16 06:13 52.89048 1.38990 37078 ft 534 kts 113°
2026-04-16 06:14 52.86411 1.50484 37074 ft 533 kts 114°
2026-04-16 06:14 52.83766 1.61952 37081 ft 533 kts 113°
2026-04-16 06:15 52.81114 1.73399 37084 ft 532 kts 114°
2026-04-16 06:15 52.78452 1.84817 37095 ft 532 kts 114°
2026-04-16 06:16 52.75787 1.96199 37095 ft 531 kts 114°
2026-04-16 06:16 52.73126 2.07490 37101 ft 530 kts 114°
2026-04-16 06:17 52.70448 2.18805 37103 ft 530 kts 114°
2026-04-16 06:17 52.67755 2.30117 37106 ft 529 kts 114°
2026-04-16 06:18 52.65055 2.41403 37108 ft 530 kts 114°
2026-04-16 06:18 52.62343 2.52678 37116 ft 529 kts 114°
2026-04-16 06:19 52.59623 2.63932 37117 ft 529 kts 114°
2026-04-16 06:19 52.56890 2.75180 37120 ft 529 kts 114°
2026-04-16 06:20 52.54067 2.86344 37142 ft 527 kts 118°
2026-04-16 06:20 52.50907 2.97218 37131 ft 527 kts 118°
2026-04-16 06:21 52.47766 3.08019 37123 ft 527 kts 118°
2026-04-16 06:21 52.44593 3.18857 37118 ft 527 kts 118°
2026-04-16 06:22 52.41416 3.29674 37109 ft 527 kts 118°
2026-04-16 06:22 52.38224 3.40485 37114 ft 526 kts 118°
2026-04-16 06:23 52.35026 3.51273 37119 ft 527 kts 118°
2026-04-16 06:23 52.31837 3.61984 37124 ft 526 kts 118°
2026-04-16 06:24 52.28616 3.72740 37133 ft 526 kts 118°
2026-04-16 06:24 52.25391 3.83476 37147 ft 526 kts 119°
2026-04-16 06:25 52.22193 3.94066 37152 ft 525 kts 119°
2026-04-16 06:25 52.18949 4.04766 37156 ft 526 kts 119°
2026-04-16 06:26 52.15720 4.15367 37158 ft 526 kts 119°
2026-04-16 06:26 52.12461 4.26022 37161 ft 526 kts 119°
2026-04-16 06:27 52.09180 4.36700 37160 ft 525 kts 119°
2026-04-16 06:27 52.05906 4.47309 37149 ft 525 kts 119°
2026-04-16 06:28 52.02641 4.57841 37152 ft 525 kts 119°
2026-04-16 06:28 51.99345 4.68430 37152 ft 524 kts 119°
2026-04-16 06:29 51.96038 4.79007 37153 ft 524 kts 120°
2026-04-16 06:29 51.92750 4.89475 37155 ft 524 kts 120°
2026-04-16 06:30 51.89156 5.00870 37161 ft 524 kts 120°
2026-04-16 06:30 51.78842 5.33278 37177 ft 523 kts 120°
2026-04-16 06:31 51.65712 5.73926 37179 ft 523 kts 120°
2026-04-16 06:31 51.60876 5.88727 37177 ft 523 kts 120°
2026-04-16 06:32 51.57482 5.99065 37178 ft 523 kts 120°
2026-04-16 06:32 51.50618 6.19841 37180 ft 523 kts 120°
2026-04-16 06:33 51.43007 6.50105 37199 ft 526 kts 113°
2026-04-16 06:33 51.40399 6.60970 36891 ft 523 kts 114°
2026-04-16 06:34 51.39037 6.66363 36216 ft 523 kts 114°
2026-04-16 06:34 51.37663 6.71764 35447 ft 525 kts 114°
2026-04-16 06:34 51.36314 6.77201 34709 ft 526 kts 114°
2026-04-16 06:34 51.34970 6.82645 33987 ft 526 kts 114°
2026-04-16 06:35 51.33606 6.88076 33090 ft 527 kts 114°
2026-04-16 06:35 51.32224 6.93521 32183 ft 529 kts 114°
2026-04-16 06:35 51.30855 6.98945 31565 ft 524 kts 114°
2026-04-16 06:35 51.29501 7.04335 30963 ft 520 kts 114°
2026-04-16 06:36 51.28150 7.09672 30362 ft 515 kts 114°
2026-04-16 06:36 51.26804 7.14953 29688 ft 511 kts 114°
2026-04-16 06:36 51.25487 7.20118 29038 ft 506 kts 114°
2026-04-16 06:36 51.24167 7.25299 28399 ft 502 kts 114°
2026-04-16 06:37 51.22981 7.29959 27821 ft 497 kts 116°
2026-04-16 06:37 51.17190 7.41392 26149 ft 467 kts 151°
2026-04-16 06:37 51.05433 7.47984 23756 ft 443 kts 166°
2026-04-16 06:37 50.94085 7.54984 21073 ft 428 kts 164°
2026-04-16 06:38 50.85846 7.59953 19232 ft 418 kts 162°
2026-04-16 06:38 50.75876 7.65859 16927 ft 403 kts 162°
2026-04-16 06:38 50.73072 7.67521 16274 ft 399 kts 162°
2026-04-16 06:38 50.70479 7.69050 15681 ft 395 kts 162°
2026-04-16 06:39 50.67921 7.70563 15090 ft 391 kts 162°
2026-04-16 06:39 50.65392 7.72060 14538 ft 387 kts 162°
2026-04-16 06:39 50.62875 7.73547 13963 ft 383 kts 161°
2026-04-16 06:39 50.60386 7.75013 13342 ft 380 kts 161°
2026-04-16 06:40 50.57948 7.76450 12749 ft 376 kts 161°
2026-04-16 06:40 50.55503 7.77887 12146 ft 373 kts 162°
2026-04-16 06:40 50.53102 7.79372 11563 ft 371 kts 154°
2026-04-16 06:40 50.51025 7.81762 11011 ft 370 kts 135°
2026-04-16 06:41 50.49534 7.85039 10466 ft 369 kts 118°
2026-04-16 06:41 50.45840 7.98044 8422 ft 358 kts 119°
2026-04-16 06:41 50.41493 8.11778 6706 ft 334 kts 117°
2026-04-16 06:41 50.39618 8.17670 6724 ft 348 kts 117°
2026-04-16 06:42 50.31480 8.43339 6712 ft 342 kts 117°
2026-04-16 06:42 50.30386 8.46778 6716 ft 349 kts 117°
2026-04-16 06:42 50.29307 8.50149 6718 ft 351 kts 117°
2026-04-16 06:42 50.28225 8.53526 6730 ft 350 kts 117°
2026-04-16 06:43 50.27144 8.56900 6720 ft 349 kts 117°
2026-04-16 06:43 50.26071 8.60247 6719 ft 347 kts 117°
2026-04-16 06:43 50.23080 8.69542 5409 ft 336 kts 117°
2026-04-16 06:43 50.19517 8.80575 5234 ft 333 kts 117°
2026-04-16 06:44 50.18462 8.83834 5229 ft 338 kts 117°
2026-04-16 06:44 50.17376 8.87087 5237 ft 339 kts 122°
2026-04-16 06:44 50.15807 8.89733 5229 ft 325 kts 146°
2026-04-16 06:44 50.13834 8.91128 5226 ft 305 kts 170°
2026-04-16 06:45 50.11789 8.91094 5236 ft 286 kts 197°
2026-04-16 06:45 50.10092 8.89722 5234 ft 270 kts 224°
2026-04-16 06:45 50.09059 8.87398 5189 ft 258 kts 248°
2026-04-16 06:45 50.08573 8.84670 4441 ft 264 kts 262°
2026-04-16 06:46 50.08358 8.81883 3792 ft 256 kts 265°
2026-04-16 06:46 50.08210 8.79234 3231 ft 232 kts 265°
2026-04-16 06:46 50.08082 8.76841 2850 ft 207 kts 265°
2026-04-16 06:46 50.07942 8.74784 2536 ft 179 kts 263°
2026-04-16 06:47 50.07763 8.73022 2285 ft 159 kts 261°
2026-04-16 06:47 50.07517 8.71407 2036 ft 148 kts 256°
2026-04-16 06:47 50.07204 8.69918 1766 ft 142 kts 251°
2026-04-16 06:47 50.06865 8.68512 1637 ft 136 kts 249°
2026-04-16 06:48 50.06630 8.67601 1494 ft 136 kts 248°
2026-04-16 06:48 50.06229 8.65888 1309 ft 136 kts 250°
2026-04-16 06:48 50.05916 8.64495 1177 ft 134 kts 250°
2026-04-16 06:48 50.05590 8.63145 1037 ft 135 kts 248°
2026-04-16 06:49 50.05254 8.61781 857 ft 137 kts 248°
2026-04-16 06:49 50.04915 8.60366 646 ft 141 kts 248°
2026-04-16 06:49 50.04575 8.58957 448 ft 135 kts 249°
2026-04-16 06:49 50.04265 8.57675 373 ft 119 kts 249°
2026-04-16 06:50 50.04035 8.56699 368 ft 72 kts 249°
2026-04-16 06:50 50.03905 8.56142 367 ft 42 kts 251°
2026-04-16 06:50 50.03892 8.55778 362 ft 30 kts 279°
2026-04-16 06:50 50.03920 8.55648 362 ft 1 kts 327°
2026-04-16 06:51 50.03925 8.55646 363 ft 2 kts 335°
2026-04-16 06:51 50.03935 8.55644 362 ft 2 kts 355°
2026-04-16 06:51 50.03958 8.55651 361 ft 4 kts 17°
2026-04-16 06:51 50.03977 8.55676 365 ft 4 kts 46°
2026-04-16 06:52 50.04003 8.55760 363 ft 14 kts 71°
2026-04-16 06:52 50.04046 8.55941 364 ft 16 kts 65°
2026-04-16 06:52 50.04069 8.55977 364 ft 0 kts 19°
2026-04-16 06:52 50.04073 8.55977 364 ft 1 kts
2026-04-16 06:53 50.04095 8.55969 361 ft 6 kts 342°
2026-04-16 06:53 50.04180 8.55923 361 ft 18 kts 347°
2026-04-16 06:53 50.04251 8.55944 364 ft 19 kts 14°
2026-04-16 06:53 50.04484 8.55931 367 ft 31 kts 18°
2026-04-16 06:54 50.04567 8.56034 365 ft 19 kts 57°
2026-04-16 06:54 50.04609 8.56081 371 ft 1 kts
2026-04-16 06:54 50.04632 8.56069 365 ft 7 kts 340°
2026-04-16 06:54 50.04674 8.56044 366 ft 2 kts 339°